<?xml version="1.0" encoding="UTF-8" standalone="no" ?>
<gpx xmlns="http://www.topografix.com/GPX/1/1" xmlns:xsi="http://www.w3.org/2001/XMLSchema-instance" xsi:schemaLocation="http://www.topografix.com/GPX/1/1 http://www.topografix.com/GPX/1/1/gpx.xsd" version="1.1" creator="VisuGPX - https://www.visugpx.com">
  <metadata>
    <name>GITER Poitou Charentes : boucle 86</name>
    <desc><![CDATA[Partie en Vienne de la Boucle centrale
[url]http://cdte86.free.fr/spip.php?article137[/url]]]></desc>
  </metadata>
  <trk>
    <name><![CDATA[Trk006]]></name>
    <trkseg>
      <trkpt lat="46.20716" lon="0.16402">
        <ele>129</ele>
        <time>2007-05-01T13:35:12Z</time>
      </trkpt>
      <trkpt lat="46.20711" lon="0.16596">
        <ele>129</ele>
        <time>2007-05-01T13:35:12Z</time>
      </trkpt>
      <trkpt lat="46.20679" lon="0.16824">
        <ele>131</ele>
        <time>2007-05-01T13:35:12Z</time>
      </trkpt>
      <trkpt lat="46.20613" lon="0.16905">
        <ele>132</ele>
        <time>2007-05-01T13:35:12Z</time>
      </trkpt>
      <trkpt lat="46.20574" lon="0.17191">
        <ele>134</ele>
        <time>2007-05-01T13:35:12Z</time>
      </trkpt>
      <trkpt lat="46.2048" lon="0.17435">
        <ele>132</ele>
        <time>2007-05-01T13:35:12Z</time>
      </trkpt>
      <trkpt lat="46.20394" lon="0.17905">
        <ele>130</ele>
        <time>2007-05-01T13:35:12Z</time>
      </trkpt>
      <trkpt lat="46.20297" lon="0.18">
        <ele>131</ele>
        <time>2007-05-01T13:35:12Z</time>
      </trkpt>
      <trkpt lat="46.20278" lon="0.18201">
        <ele>136</ele>
        <time>2007-05-01T13:35:12Z</time>
      </trkpt>
      <trkpt lat="46.2023" lon="0.18255">
        <ele>137</ele>
        <time>2007-05-01T13:35:12Z</time>
      </trkpt>
      <trkpt lat="46.2023" lon="0.18495">
        <ele>142</ele>
        <time>2007-05-01T13:35:12Z</time>
      </trkpt>
      <trkpt lat="46.20195" lon="0.18775">
        <ele>143</ele>
        <time>2007-05-01T13:35:12Z</time>
      </trkpt>
      <trkpt lat="46.20143" lon="0.18926">
        <ele>143</ele>
        <time>2007-05-01T13:35:12Z</time>
      </trkpt>
      <trkpt lat="46.20157" lon="0.19185">
        <ele>143</ele>
        <time>2007-05-01T13:35:12Z</time>
      </trkpt>
      <trkpt lat="46.20127" lon="0.19458">
        <ele>141</ele>
        <time>2007-05-01T13:35:12Z</time>
      </trkpt>
      <trkpt lat="46.20111" lon="0.19569">
        <ele>140</ele>
        <time>2007-05-01T13:35:12Z</time>
      </trkpt>
      <trkpt lat="46.20283" lon="0.19666">
        <ele>136</ele>
        <time>2007-05-01T13:35:12Z</time>
      </trkpt>
      <trkpt lat="46.20427" lon="0.19647">
        <ele>135</ele>
        <time>2007-05-01T13:35:12Z</time>
      </trkpt>
      <trkpt lat="46.21061" lon="0.20089">
        <ele>134</ele>
        <time>2007-05-01T13:35:12Z</time>
      </trkpt>
      <trkpt lat="46.20992" lon="0.20228">
        <ele>134</ele>
        <time>2007-05-01T13:35:12Z</time>
      </trkpt>
      <trkpt lat="46.20986" lon="0.20423">
        <ele>133</ele>
        <time>2007-05-01T13:35:12Z</time>
      </trkpt>
      <trkpt lat="46.21327" lon="0.20597">
        <ele>133</ele>
        <time>2007-05-01T13:35:12Z</time>
      </trkpt>
      <trkpt lat="46.21548" lon="0.20634">
        <ele>132</ele>
        <time>2007-05-01T13:35:12Z</time>
      </trkpt>
      <trkpt lat="46.21692" lon="0.20628">
        <ele>132</ele>
        <time>2007-05-01T13:35:12Z</time>
      </trkpt>
      <trkpt lat="46.21768" lon="0.20347">
        <ele>135</ele>
        <time>2007-05-01T13:35:12Z</time>
      </trkpt>
      <trkpt lat="46.21876" lon="0.20368">
        <ele>135</ele>
        <time>2007-05-01T13:35:12Z</time>
      </trkpt>
      <trkpt lat="46.21891" lon="0.20206">
        <ele>138</ele>
        <time>2007-05-01T13:35:12Z</time>
      </trkpt>
      <trkpt lat="46.21885" lon="0.20115">
        <ele>140</ele>
        <time>2007-05-01T13:35:12Z</time>
      </trkpt>
      <trkpt lat="46.22451" lon="0.1936">
        <ele>141</ele>
        <time>2007-05-01T13:35:12Z</time>
      </trkpt>
      <trkpt lat="46.22719" lon="0.18993">
        <ele>141</ele>
        <time>2007-05-01T13:35:12Z</time>
      </trkpt>
      <trkpt lat="46.22862" lon="0.18696">
        <ele>130</ele>
        <time>2007-05-01T13:35:12Z</time>
      </trkpt>
      <trkpt lat="46.22911" lon="0.18674">
        <ele>130</ele>
        <time>2007-05-01T13:35:12Z</time>
      </trkpt>
      <trkpt lat="46.22954" lon="0.18575">
        <ele>125</ele>
        <time>2007-05-01T13:35:12Z</time>
      </trkpt>
      <trkpt lat="46.22957" lon="0.18517">
        <ele>124</ele>
        <time>2007-05-01T13:35:12Z</time>
      </trkpt>
      <trkpt lat="46.23238" lon="0.1813">
        <ele>140</ele>
        <time>2007-05-01T13:35:12Z</time>
      </trkpt>
      <trkpt lat="46.23492" lon="0.18223">
        <ele>143</ele>
        <time>2007-05-01T13:35:12Z</time>
      </trkpt>
      <trkpt lat="46.23706" lon="0.18364">
        <ele>143</ele>
        <time>2007-05-01T13:35:12Z</time>
      </trkpt>
      <trkpt lat="46.23743" lon="0.18188">
        <ele>142</ele>
        <time>2007-05-01T13:35:12Z</time>
      </trkpt>
      <trkpt lat="46.23812" lon="0.18003">
        <ele>140</ele>
        <time>2007-05-01T13:35:12Z</time>
      </trkpt>
      <trkpt lat="46.24037" lon="0.17573">
        <ele>135</ele>
        <time>2007-05-01T13:35:12Z</time>
      </trkpt>
      <trkpt lat="46.2419" lon="0.1734">
        <ele>130</ele>
        <time>2007-05-01T13:35:12Z</time>
      </trkpt>
      <trkpt lat="46.24344" lon="0.1736">
        <ele>134</ele>
        <time>2007-05-01T13:35:12Z</time>
      </trkpt>
      <trkpt lat="46.24605" lon="0.17628">
        <ele>143</ele>
        <time>2007-05-01T13:35:12Z</time>
      </trkpt>
      <trkpt lat="46.24703" lon="0.17799">
        <ele>142</ele>
        <time>2007-05-01T13:35:12Z</time>
      </trkpt>
      <trkpt lat="46.24666" lon="0.17982">
        <ele>141</ele>
        <time>2007-05-01T13:35:12Z</time>
      </trkpt>
      <trkpt lat="46.24667" lon="0.18028">
        <ele>139</ele>
        <time>2007-05-01T13:35:12Z</time>
      </trkpt>
      <trkpt lat="46.24536" lon="0.18254">
        <ele>142</ele>
        <time>2007-05-01T13:35:12Z</time>
      </trkpt>
      <trkpt lat="46.2461" lon="0.18328">
        <ele>134</ele>
        <time>2007-05-01T13:35:12Z</time>
      </trkpt>
      <trkpt lat="46.24611" lon="0.184">
        <ele>134</ele>
        <time>2007-05-01T13:35:12Z</time>
      </trkpt>
      <trkpt lat="46.24609" lon="0.18549">
        <ele>135</ele>
        <time>2007-05-01T13:35:12Z</time>
      </trkpt>
      <trkpt lat="46.24731" lon="0.18771">
        <ele>132</ele>
        <time>2007-05-01T13:35:12Z</time>
      </trkpt>
      <trkpt lat="46.24776" lon="0.18789">
        <ele>132</ele>
        <time>2007-05-01T13:35:12Z</time>
      </trkpt>
      <trkpt lat="46.24734" lon="0.18972">
        <ele>136</ele>
        <time>2007-05-01T13:35:12Z</time>
      </trkpt>
      <trkpt lat="46.2474" lon="0.19037">
        <ele>136</ele>
        <time>2007-05-01T13:35:12Z</time>
      </trkpt>
      <trkpt lat="46.24653" lon="0.19183">
        <ele>133</ele>
        <time>2007-05-01T13:35:12Z</time>
      </trkpt>
      <trkpt lat="46.24533" lon="0.19272">
        <ele>129</ele>
        <time>2007-05-01T13:35:12Z</time>
      </trkpt>
      <trkpt lat="46.24439" lon="0.19315">
        <ele>125</ele>
        <time>2007-05-01T13:35:12Z</time>
      </trkpt>
      <trkpt lat="46.24385" lon="0.19524">
        <ele>126</ele>
        <time>2007-05-01T13:35:12Z</time>
      </trkpt>
      <trkpt lat="46.24465" lon="0.19709">
        <ele>126</ele>
        <time>2007-05-01T13:35:12Z</time>
      </trkpt>
      <trkpt lat="46.24449" lon="0.19814">
        <ele>130</ele>
        <time>2007-05-01T13:35:12Z</time>
      </trkpt>
      <trkpt lat="46.24464" lon="0.19884">
        <ele>133</ele>
        <time>2007-05-01T13:35:12Z</time>
      </trkpt>
      <trkpt lat="46.24505" lon="0.19915">
        <ele>134</ele>
        <time>2007-05-01T13:35:12Z</time>
      </trkpt>
      <trkpt lat="46.24617" lon="0.19885">
        <ele>129</ele>
        <time>2007-05-01T13:35:12Z</time>
      </trkpt>
      <trkpt lat="46.2472" lon="0.19881">
        <ele>131</ele>
        <time>2007-05-01T13:35:12Z</time>
      </trkpt>
      <trkpt lat="46.24884" lon="0.19764">
        <ele>131</ele>
        <time>2007-05-01T13:35:12Z</time>
      </trkpt>
      <trkpt lat="46.24942" lon="0.19691">
        <ele>131</ele>
        <time>2007-05-01T13:35:12Z</time>
      </trkpt>
      <trkpt lat="46.24988" lon="0.19546">
        <ele>126</ele>
        <time>2007-05-01T13:35:12Z</time>
      </trkpt>
      <trkpt lat="46.25126" lon="0.1945">
        <ele>126</ele>
        <time>2007-05-01T13:35:12Z</time>
      </trkpt>
      <trkpt lat="46.25244" lon="0.19497">
        <ele>125</ele>
        <time>2007-05-01T13:35:12Z</time>
      </trkpt>
      <trkpt lat="46.25286" lon="0.19599">
        <ele>127</ele>
        <time>2007-05-01T13:35:12Z</time>
      </trkpt>
      <trkpt lat="46.2524" lon="0.19763">
        <ele>136</ele>
        <time>2007-05-01T13:35:12Z</time>
      </trkpt>
      <trkpt lat="46.25241" lon="0.19802">
        <ele>136</ele>
        <time>2007-05-01T13:35:12Z</time>
      </trkpt>
      <trkpt lat="46.25467" lon="0.19884">
        <ele>136</ele>
        <time>2007-05-01T13:35:12Z</time>
      </trkpt>
      <trkpt lat="46.25761" lon="0.19957">
        <ele>137</ele>
        <time>2007-05-01T13:35:12Z</time>
      </trkpt>
      <trkpt lat="46.25891" lon="0.19926">
        <ele>134</ele>
        <time>2007-05-01T13:35:12Z</time>
      </trkpt>
      <trkpt lat="46.26006" lon="0.19817">
        <ele>131</ele>
        <time>2007-05-01T13:35:12Z</time>
      </trkpt>
      <trkpt lat="46.26082" lon="0.19776">
        <ele>129</ele>
        <time>2007-05-01T13:35:12Z</time>
      </trkpt>
      <trkpt lat="46.26158" lon="0.19779">
        <ele>127</ele>
        <time>2007-05-01T13:35:12Z</time>
      </trkpt>
      <trkpt lat="46.26144" lon="0.19961">
        <ele>133</ele>
        <time>2007-05-01T13:35:12Z</time>
      </trkpt>
      <trkpt lat="46.26182" lon="0.20083">
        <ele>133</ele>
        <time>2007-05-01T13:35:12Z</time>
      </trkpt>
      <trkpt lat="46.26169" lon="0.20356">
        <ele>135</ele>
        <time>2007-05-01T13:35:12Z</time>
      </trkpt>
      <trkpt lat="46.26154" lon="0.20486">
        <ele>139</ele>
        <time>2007-05-01T13:35:12Z</time>
      </trkpt>
      <trkpt lat="46.26352" lon="0.20985">
        <ele>137</ele>
        <time>2007-05-01T13:35:12Z</time>
      </trkpt>
      <trkpt lat="46.26471" lon="0.20863">
        <ele>139</ele>
        <time>2007-05-01T13:35:12Z</time>
      </trkpt>
      <trkpt lat="46.26548" lon="0.20867">
        <ele>138</ele>
        <time>2007-05-01T13:35:12Z</time>
      </trkpt>
      <trkpt lat="46.26644" lon="0.20954">
        <ele>138</ele>
        <time>2007-05-01T13:35:12Z</time>
      </trkpt>
      <trkpt lat="46.26707" lon="0.20932">
        <ele>135</ele>
        <time>2007-05-01T13:35:12Z</time>
      </trkpt>
      <trkpt lat="46.26764" lon="0.20897">
        <ele>132</ele>
        <time>2007-05-01T13:35:12Z</time>
      </trkpt>
      <trkpt lat="46.26877" lon="0.20925">
        <ele>127</ele>
        <time>2007-05-01T13:35:12Z</time>
      </trkpt>
      <trkpt lat="46.26923" lon="0.2119">
        <ele>124</ele>
        <time>2007-05-01T13:35:12Z</time>
      </trkpt>
      <trkpt lat="46.26976" lon="0.21395">
        <ele>119</ele>
        <time>2007-05-01T13:35:12Z</time>
      </trkpt>
      <trkpt lat="46.27004" lon="0.21699">
        <ele>120</ele>
        <time>2007-05-01T13:35:12Z</time>
      </trkpt>
      <trkpt lat="46.27024" lon="0.21789">
        <ele>121</ele>
        <time>2007-05-01T13:35:12Z</time>
      </trkpt>
      <trkpt lat="46.27096" lon="0.21793">
        <ele>120</ele>
        <time>2007-05-01T13:35:12Z</time>
      </trkpt>
      <trkpt lat="46.2705" lon="0.21963">
        <ele>130</ele>
        <time>2007-05-01T13:35:12Z</time>
      </trkpt>
      <trkpt lat="46.27035" lon="0.22107">
        <ele>134</ele>
        <time>2007-05-01T13:35:12Z</time>
      </trkpt>
      <trkpt lat="46.27165" lon="0.22588">
        <ele>141</ele>
        <time>2007-05-01T13:35:12Z</time>
      </trkpt>
      <trkpt lat="46.2718" lon="0.22679">
        <ele>142</ele>
        <time>2007-05-01T13:35:12Z</time>
      </trkpt>
      <trkpt lat="46.27383" lon="0.22716">
        <ele>142</ele>
        <time>2007-05-01T13:35:12Z</time>
      </trkpt>
      <trkpt lat="46.27469" lon="0.22693">
        <ele>142</ele>
        <time>2007-05-01T13:35:12Z</time>
      </trkpt>
      <trkpt lat="46.27564" lon="0.22729">
        <ele>142</ele>
        <time>2007-05-01T13:35:12Z</time>
      </trkpt>
      <trkpt lat="46.27682" lon="0.22302">
        <ele>139</ele>
        <time>2007-05-01T13:35:12Z</time>
      </trkpt>
      <trkpt lat="46.27846" lon="0.22205">
        <ele>138</ele>
        <time>2007-05-01T13:35:12Z</time>
      </trkpt>
      <trkpt lat="46.27899" lon="0.22125">
        <ele>135</ele>
        <time>2007-05-01T13:35:12Z</time>
      </trkpt>
      <trkpt lat="46.27968" lon="0.222">
        <ele>134</ele>
        <time>2007-05-01T13:35:12Z</time>
      </trkpt>
      <trkpt lat="46.27939" lon="0.22344">
        <ele>140</ele>
        <time>2007-05-01T13:35:12Z</time>
      </trkpt>
      <trkpt lat="46.28008" lon="0.22413">
        <ele>139</ele>
        <time>2007-05-01T13:35:12Z</time>
      </trkpt>
      <trkpt lat="46.28074" lon="0.22358">
        <ele>136</ele>
        <time>2007-05-01T13:35:12Z</time>
      </trkpt>
      <trkpt lat="46.28131" lon="0.22499">
        <ele>137</ele>
        <time>2007-05-01T13:35:12Z</time>
      </trkpt>
      <trkpt lat="46.28176" lon="0.22523">
        <ele>136</ele>
        <time>2007-05-01T13:35:12Z</time>
      </trkpt>
      <trkpt lat="46.28213" lon="0.2258">
        <ele>137</ele>
        <time>2007-05-01T13:35:12Z</time>
      </trkpt>
      <trkpt lat="46.2821" lon="0.22613">
        <ele>138</ele>
        <time>2007-05-01T13:35:12Z</time>
      </trkpt>
      <trkpt lat="46.28264" lon="0.22617">
        <ele>135</ele>
        <time>2007-05-01T13:35:12Z</time>
      </trkpt>
      <trkpt lat="46.28377" lon="0.22652">
        <ele>139</ele>
        <time>2007-05-01T13:35:12Z</time>
      </trkpt>
      <trkpt lat="46.28493" lon="0.22602">
        <ele>139</ele>
        <time>2007-05-01T13:35:12Z</time>
      </trkpt>
      <trkpt lat="46.28634" lon="0.22453">
        <ele>139</ele>
        <time>2007-05-01T13:35:12Z</time>
      </trkpt>
      <trkpt lat="46.28708" lon="0.22321">
        <ele>138</ele>
        <time>2007-05-01T13:35:12Z</time>
      </trkpt>
      <trkpt lat="46.28866" lon="0.22328">
        <ele>139</ele>
        <time>2007-05-01T13:35:12Z</time>
      </trkpt>
      <trkpt lat="46.29029" lon="0.22166">
        <ele>126</ele>
        <time>2007-05-01T13:35:12Z</time>
      </trkpt>
      <trkpt lat="46.29032" lon="0.22055">
        <ele>114</ele>
        <time>2007-05-01T13:35:12Z</time>
      </trkpt>
      <trkpt lat="46.28989" lon="0.21927">
        <ele>112</ele>
        <time>2007-05-01T13:35:12Z</time>
      </trkpt>
      <trkpt lat="46.29" lon="0.2181">
        <ele>109</ele>
        <time>2007-05-01T13:35:12Z</time>
      </trkpt>
      <trkpt lat="46.29114" lon="0.2187">
        <ele>117</ele>
        <time>2007-05-01T13:35:12Z</time>
      </trkpt>
      <trkpt lat="46.2917" lon="0.21777">
        <ele>127</ele>
        <time>2007-05-01T13:35:12Z</time>
      </trkpt>
      <trkpt lat="46.29426" lon="0.21942">
        <ele>123</ele>
        <time>2007-05-01T13:35:12Z</time>
      </trkpt>
      <trkpt lat="46.29505" lon="0.21881">
        <ele>113</ele>
        <time>2007-05-01T13:35:12Z</time>
      </trkpt>
      <trkpt lat="46.29583" lon="0.21962">
        <ele>107</ele>
        <time>2007-05-01T13:35:12Z</time>
      </trkpt>
      <trkpt lat="46.29687" lon="0.21991">
        <ele>113</ele>
        <time>2007-05-01T13:35:12Z</time>
      </trkpt>
      <trkpt lat="46.29843" lon="0.22127">
        <ele>122</ele>
        <time>2007-05-01T13:35:12Z</time>
      </trkpt>
      <trkpt lat="46.29948" lon="0.22182">
        <ele>126</ele>
        <time>2007-05-01T13:35:12Z</time>
      </trkpt>
      <trkpt lat="46.30057" lon="0.22236">
        <ele>124</ele>
        <time>2007-05-01T13:35:12Z</time>
      </trkpt>
      <trkpt lat="46.302" lon="0.22432">
        <ele>126</ele>
        <time>2007-05-01T13:35:12Z</time>
      </trkpt>
      <trkpt lat="46.30229" lon="0.22541">
        <ele>131</ele>
        <time>2007-05-01T13:35:12Z</time>
      </trkpt>
      <trkpt lat="46.30261" lon="0.22559">
        <ele>130</ele>
        <time>2007-05-01T13:35:12Z</time>
      </trkpt>
      <trkpt lat="46.30282" lon="0.22753">
        <ele>139</ele>
        <time>2007-05-01T13:35:12Z</time>
      </trkpt>
      <trkpt lat="46.30674" lon="0.23024">
        <ele>137</ele>
        <time>2007-05-01T13:35:12Z</time>
      </trkpt>
      <trkpt lat="46.3083" lon="0.23186">
        <ele>134</ele>
        <time>2007-05-01T13:35:12Z</time>
      </trkpt>
      <trkpt lat="46.30878" lon="0.23074">
        <ele>132</ele>
        <time>2007-05-01T13:35:12Z</time>
      </trkpt>
      <trkpt lat="46.30956" lon="0.22688">
        <ele>122</ele>
        <time>2007-05-01T13:35:12Z</time>
      </trkpt>
      <trkpt lat="46.31114" lon="0.22734">
        <ele>126</ele>
        <time>2007-05-01T13:35:12Z</time>
      </trkpt>
      <trkpt lat="46.31223" lon="0.22775">
        <ele>117</ele>
        <time>2007-05-01T13:35:12Z</time>
      </trkpt>
      <trkpt lat="46.31199" lon="0.22945">
        <ele>119</ele>
        <time>2007-05-01T13:35:12Z</time>
      </trkpt>
      <trkpt lat="46.31258" lon="0.22969">
        <ele>113</ele>
        <time>2007-05-01T13:35:12Z</time>
      </trkpt>
      <trkpt lat="46.31311" lon="0.23168">
        <ele>107</ele>
        <time>2007-05-01T13:35:12Z</time>
      </trkpt>
      <trkpt lat="46.31378" lon="0.23354">
        <ele>116</ele>
        <time>2007-05-01T13:35:12Z</time>
      </trkpt>
      <trkpt lat="46.31551" lon="0.23444">
        <ele>117</ele>
        <time>2007-05-01T13:35:12Z</time>
      </trkpt>
      <trkpt lat="46.31706" lon="0.23575">
        <ele>127</ele>
        <time>2007-05-01T13:35:12Z</time>
      </trkpt>
      <trkpt lat="46.31782" lon="0.23572">
        <ele>126</ele>
        <time>2007-05-01T13:35:12Z</time>
      </trkpt>
      <trkpt lat="46.31825" lon="0.23707">
        <ele>129</ele>
        <time>2007-05-01T13:35:12Z</time>
      </trkpt>
      <trkpt lat="46.31857" lon="0.23738">
        <ele>129</ele>
        <time>2007-05-01T13:35:12Z</time>
      </trkpt>
      <trkpt lat="46.31669" lon="0.24472">
        <ele>136</ele>
        <time>2007-05-01T13:35:12Z</time>
      </trkpt>
      <trkpt lat="46.31902" lon="0.24457">
        <ele>132</ele>
        <time>2007-05-01T13:35:12Z</time>
      </trkpt>
      <trkpt lat="46.32147" lon="0.24324">
        <ele>138</ele>
        <time>2007-05-01T13:35:12Z</time>
      </trkpt>
      <trkpt lat="46.32168" lon="0.24479">
        <ele>139</ele>
        <time>2007-05-01T13:35:12Z</time>
      </trkpt>
      <trkpt lat="46.32134" lon="0.24565">
        <ele>137</ele>
        <time>2007-05-01T13:35:12Z</time>
      </trkpt>
      <trkpt lat="46.32116" lon="0.24813">
        <ele>136</ele>
        <time>2007-05-01T13:35:12Z</time>
      </trkpt>
      <trkpt lat="46.32221" lon="0.24925">
        <ele>136</ele>
        <time>2007-05-01T13:35:12Z</time>
      </trkpt>
      <trkpt lat="46.3256" lon="0.24971">
        <ele>140</ele>
        <time>2007-05-01T13:35:12Z</time>
      </trkpt>
      <trkpt lat="46.32878" lon="0.25173">
        <ele>148</ele>
        <time>2007-05-01T13:35:12Z</time>
      </trkpt>
      <trkpt lat="46.32681" lon="0.25421">
        <ele>143</ele>
        <time>2007-05-01T13:35:12Z</time>
      </trkpt>
      <trkpt lat="46.32638" lon="0.25578">
        <ele>144</ele>
        <time>2007-05-01T13:35:12Z</time>
      </trkpt>
      <trkpt lat="46.3252" lon="0.25726">
        <ele>144</ele>
        <time>2007-05-01T13:35:12Z</time>
      </trkpt>
      <trkpt lat="46.32443" lon="0.25963">
        <ele>131</ele>
        <time>2007-05-01T13:35:12Z</time>
      </trkpt>
      <trkpt lat="46.32355" lon="0.26297">
        <ele>107</ele>
        <time>2007-05-01T13:35:12Z</time>
      </trkpt>
      <trkpt lat="46.32307" lon="0.26377">
        <ele>103</ele>
        <time>2007-05-01T13:35:12Z</time>
      </trkpt>
      <trkpt lat="46.32265" lon="0.26586">
        <ele>106</ele>
        <time>2007-05-01T13:35:12Z</time>
      </trkpt>
      <trkpt lat="46.32207" lon="0.26608">
        <ele>110</ele>
        <time>2007-05-01T13:35:12Z</time>
      </trkpt>
      <trkpt lat="46.32094" lon="0.26567">
        <ele>117</ele>
        <time>2007-05-01T13:35:12Z</time>
      </trkpt>
      <trkpt lat="46.32027" lon="0.26589">
        <ele>120</ele>
        <time>2007-05-01T13:35:12Z</time>
      </trkpt>
      <trkpt lat="46.31944" lon="0.26495">
        <ele>127</ele>
        <time>2007-05-01T13:35:12Z</time>
      </trkpt>
      <trkpt lat="46.31769" lon="0.26261">
        <ele>136</ele>
        <time>2007-05-01T13:35:12Z</time>
      </trkpt>
      <trkpt lat="46.31781" lon="0.26196">
        <ele>135</ele>
        <time>2007-05-01T13:35:12Z</time>
      </trkpt>
      <trkpt lat="46.31752" lon="0.26099">
        <ele>135</ele>
        <time>2007-05-01T13:35:12Z</time>
      </trkpt>
      <trkpt lat="46.31685" lon="0.26095">
        <ele>135</ele>
        <time>2007-05-01T13:35:12Z</time>
      </trkpt>
      <trkpt lat="46.31659" lon="0.26168">
        <ele>136</ele>
        <time>2007-05-01T13:35:12Z</time>
      </trkpt>
      <trkpt lat="46.31628" lon="0.26156">
        <ele>136</ele>
        <time>2007-05-01T13:35:12Z</time>
      </trkpt>
      <trkpt lat="46.31611" lon="0.26248">
        <ele>137</ele>
        <time>2007-05-01T13:35:12Z</time>
      </trkpt>
      <trkpt lat="46.31644" lon="0.26324">
        <ele>136</ele>
        <time>2007-05-01T13:35:12Z</time>
      </trkpt>
      <trkpt lat="46.31642" lon="0.26448">
        <ele>136</ele>
        <time>2007-05-01T13:35:12Z</time>
      </trkpt>
      <trkpt lat="46.3163" lon="0.26526">
        <ele>136</ele>
        <time>2007-05-01T13:35:12Z</time>
      </trkpt>
      <trkpt lat="46.31649" lon="0.26603">
        <ele>136</ele>
        <time>2007-05-01T13:35:12Z</time>
      </trkpt>
      <trkpt lat="46.31686" lon="0.26901">
        <ele>137</ele>
        <time>2007-05-01T13:35:12Z</time>
      </trkpt>
      <trkpt lat="46.3176" lon="0.27242">
        <ele>140</ele>
        <time>2007-05-01T13:35:12Z</time>
      </trkpt>
      <trkpt lat="46.31717" lon="0.27367">
        <ele>140</ele>
        <time>2007-05-01T13:35:12Z</time>
      </trkpt>
      <trkpt lat="46.31654" lon="0.27603">
        <ele>136</ele>
        <time>2007-05-01T13:35:12Z</time>
      </trkpt>
      <trkpt lat="46.31561" lon="0.27691">
        <ele>138</ele>
        <time>2007-05-01T13:35:12Z</time>
      </trkpt>
      <trkpt lat="46.3147" lon="0.2763">
        <ele>140</ele>
        <time>2007-05-01T13:35:12Z</time>
      </trkpt>
      <trkpt lat="46.31396" lon="0.27776">
        <ele>135</ele>
        <time>2007-05-01T13:35:12Z</time>
      </trkpt>
      <trkpt lat="46.31282" lon="0.27695">
        <ele>136</ele>
        <time>2007-05-01T13:35:12Z</time>
      </trkpt>
      <trkpt lat="46.31082" lon="0.28099">
        <ele>116</ele>
        <time>2007-05-01T13:35:12Z</time>
      </trkpt>
      <trkpt lat="46.31224" lon="0.28198">
        <ele>104</ele>
        <time>2007-05-01T13:35:12Z</time>
      </trkpt>
      <trkpt lat="46.31143" lon="0.28441">
        <ele>108</ele>
        <time>2007-05-01T13:35:12Z</time>
      </trkpt>
      <trkpt lat="46.31175" lon="0.28732">
        <ele>110</ele>
        <time>2007-05-01T13:35:12Z</time>
      </trkpt>
      <trkpt lat="46.31301" lon="0.28994">
        <ele>109</ele>
        <time>2007-05-01T13:35:12Z</time>
      </trkpt>
      <trkpt lat="46.31227" lon="0.29126">
        <ele>118</ele>
        <time>2007-05-01T13:35:12Z</time>
      </trkpt>
      <trkpt lat="46.3121" lon="0.29172">
        <ele>115</ele>
        <time>2007-05-01T13:35:12Z</time>
      </trkpt>
      <trkpt lat="46.31065" lon="0.291">
        <ele>121</ele>
        <time>2007-05-01T13:35:12Z</time>
      </trkpt>
      <trkpt lat="46.30858" lon="0.29127">
        <ele>117</ele>
        <time>2007-05-01T13:35:12Z</time>
      </trkpt>
      <trkpt lat="46.30808" lon="0.29096">
        <ele>128</ele>
        <time>2007-05-01T13:35:12Z</time>
      </trkpt>
      <trkpt lat="46.30715" lon="0.29158">
        <ele>127</ele>
        <time>2007-05-01T13:35:12Z</time>
      </trkpt>
      <trkpt lat="46.30656" lon="0.29154">
        <ele>131</ele>
        <time>2007-05-01T13:35:12Z</time>
      </trkpt>
      <trkpt lat="46.30549" lon="0.29236">
        <ele>128</ele>
        <time>2007-05-01T13:35:12Z</time>
      </trkpt>
      <trkpt lat="46.30508" lon="0.2916">
        <ele>131</ele>
        <time>2007-05-01T13:35:12Z</time>
      </trkpt>
      <trkpt lat="46.30409" lon="0.2917">
        <ele>135</ele>
        <time>2007-05-01T13:35:12Z</time>
      </trkpt>
      <trkpt lat="46.30274" lon="0.29175">
        <ele>139</ele>
        <time>2007-05-01T13:35:12Z</time>
      </trkpt>
      <trkpt lat="46.30171" lon="0.29218">
        <ele>139</ele>
        <time>2007-05-01T13:35:12Z</time>
      </trkpt>
      <trkpt lat="46.30042" lon="0.29281">
        <ele>134</ele>
        <time>2007-05-01T13:35:12Z</time>
      </trkpt>
      <trkpt lat="46.29918" lon="0.29429">
        <ele>124</ele>
        <time>2007-05-01T13:35:12Z</time>
      </trkpt>
      <trkpt lat="46.2982" lon="0.29237">
        <ele>130</ele>
        <time>2007-05-01T13:35:12Z</time>
      </trkpt>
      <trkpt lat="46.29515" lon="0.29255">
        <ele>140</ele>
        <time>2007-05-01T13:35:12Z</time>
      </trkpt>
      <trkpt lat="46.2949" lon="0.29633">
        <ele>134</ele>
        <time>2007-05-01T13:35:12Z</time>
      </trkpt>
      <trkpt lat="46.29475" lon="0.2977">
        <ele>122</ele>
        <time>2007-05-01T13:35:12Z</time>
      </trkpt>
      <trkpt lat="46.29546" lon="0.29975">
        <ele>105</ele>
        <time>2007-05-01T13:35:12Z</time>
      </trkpt>
      <trkpt lat="46.29609" lon="0.30005">
        <ele>104</ele>
        <time>2007-05-01T13:35:12Z</time>
      </trkpt>
      <trkpt lat="46.29713" lon="0.30241">
        <ele>111</ele>
        <time>2007-05-01T13:35:12Z</time>
      </trkpt>
      <trkpt lat="46.29745" lon="0.30286">
        <ele>111</ele>
        <time>2007-05-01T13:35:12Z</time>
      </trkpt>
      <trkpt lat="46.29746" lon="0.30363">
        <ele>113</ele>
        <time>2007-05-01T13:35:12Z</time>
      </trkpt>
      <trkpt lat="46.29801" lon="0.30433">
        <ele>117</ele>
        <time>2007-05-01T13:35:12Z</time>
      </trkpt>
      <trkpt lat="46.29851" lon="0.30671">
        <ele>112</ele>
        <time>2007-05-01T13:35:12Z</time>
      </trkpt>
      <trkpt lat="46.29947" lon="0.30758">
        <ele>115</ele>
        <time>2007-05-01T13:35:12Z</time>
      </trkpt>
      <trkpt lat="46.30007" lon="0.30834">
        <ele>119</ele>
        <time>2007-05-01T13:35:12Z</time>
      </trkpt>
      <trkpt lat="46.30051" lon="0.30819">
        <ele>119</ele>
        <time>2007-05-01T13:35:12Z</time>
      </trkpt>
      <trkpt lat="46.3008" lon="0.30916">
        <ele>119</ele>
        <time>2007-05-01T13:35:12Z</time>
      </trkpt>
      <trkpt lat="46.30033" lon="0.31067">
        <ele>127</ele>
        <time>2007-05-01T13:35:12Z</time>
      </trkpt>
      <trkpt lat="46.29934" lon="0.31317">
        <ele>137</ele>
        <time>2007-05-01T13:35:12Z</time>
      </trkpt>
      <trkpt lat="46.29758" lon="0.31506">
        <ele>135</ele>
        <time>2007-05-01T13:35:12Z</time>
      </trkpt>
      <trkpt lat="46.29638" lon="0.32127">
        <ele>143</ele>
        <time>2007-05-01T13:35:12Z</time>
      </trkpt>
      <trkpt lat="46.29631" lon="0.32478">
        <ele>146</ele>
        <time>2007-05-01T13:35:12Z</time>
      </trkpt>
      <trkpt lat="46.29551" lon="0.32799">
        <ele>145</ele>
        <time>2007-05-01T13:35:12Z</time>
      </trkpt>
      <trkpt lat="46.29393" lon="0.32753">
        <ele>143</ele>
        <time>2007-05-01T13:35:12Z</time>
      </trkpt>
      <trkpt lat="46.29126" lon="0.32925">
        <ele>143</ele>
        <time>2007-05-01T13:35:12Z</time>
      </trkpt>
      <trkpt lat="46.2919" lon="0.33013">
        <ele>140</ele>
        <time>2007-05-01T13:35:12Z</time>
      </trkpt>
      <trkpt lat="46.29272" lon="0.33056">
        <ele>139</ele>
        <time>2007-05-01T13:35:12Z</time>
      </trkpt>
      <trkpt lat="46.2931" lon="0.33132">
        <ele>142</ele>
        <time>2007-05-01T13:35:12Z</time>
      </trkpt>
      <trkpt lat="46.29266" lon="0.33225">
        <ele>143</ele>
        <time>2007-05-01T13:35:12Z</time>
      </trkpt>
      <trkpt lat="46.29213" lon="0.33272">
        <ele>143</ele>
        <time>2007-05-01T13:35:12Z</time>
      </trkpt>
      <trkpt lat="46.29247" lon="0.33394">
        <ele>143</ele>
        <time>2007-05-01T13:35:12Z</time>
      </trkpt>
      <trkpt lat="46.29296" lon="0.33373">
        <ele>143</ele>
        <time>2007-05-01T13:35:12Z</time>
      </trkpt>
      <trkpt lat="46.29284" lon="0.3349">
        <ele>141</ele>
        <time>2007-05-01T13:35:12Z</time>
      </trkpt>
      <trkpt lat="46.29203" lon="0.3374">
        <ele>138</ele>
        <time>2007-05-01T13:35:12Z</time>
      </trkpt>
      <trkpt lat="46.29137" lon="0.33814">
        <ele>135</ele>
        <time>2007-05-01T13:35:12Z</time>
      </trkpt>
      <trkpt lat="46.29022" lon="0.33935">
        <ele>134</ele>
        <time>2007-05-01T13:35:12Z</time>
      </trkpt>
      <trkpt lat="46.28929" lon="0.33997">
        <ele>129</ele>
        <time>2007-05-01T13:35:12Z</time>
      </trkpt>
      <trkpt lat="46.28869" lon="0.34174">
        <ele>118</ele>
        <time>2007-05-01T13:35:12Z</time>
      </trkpt>
      <trkpt lat="46.28815" lon="0.34202">
        <ele>117</ele>
        <time>2007-05-01T13:35:12Z</time>
      </trkpt>
      <trkpt lat="46.28853" lon="0.34272">
        <ele>127</ele>
        <time>2007-05-01T13:35:12Z</time>
      </trkpt>
      <trkpt lat="46.28898" lon="0.34303">
        <ele>133</ele>
        <time>2007-05-01T13:35:12Z</time>
      </trkpt>
      <trkpt lat="46.2894" lon="0.34379">
        <ele>137</ele>
        <time>2007-05-01T13:35:12Z</time>
      </trkpt>
      <trkpt lat="46.29" lon="0.34435">
        <ele>139</ele>
        <time>2007-05-01T13:35:12Z</time>
      </trkpt>
      <trkpt lat="46.29072" lon="0.34699">
        <ele>144</ele>
        <time>2007-05-01T13:35:12Z</time>
      </trkpt>
      <trkpt lat="46.29357" lon="0.35071">
        <ele>145</ele>
        <time>2007-05-01T13:35:12Z</time>
      </trkpt>
      <trkpt lat="46.29349" lon="0.3513">
        <ele>144</ele>
        <time>2007-05-01T13:35:12Z</time>
      </trkpt>
      <trkpt lat="46.29355" lon="0.35182">
        <ele>142</ele>
        <time>2007-05-01T13:35:12Z</time>
      </trkpt>
      <trkpt lat="46.294" lon="0.35226">
        <ele>141</ele>
        <time>2007-05-01T13:35:12Z</time>
      </trkpt>
      <trkpt lat="46.29253" lon="0.35309">
        <ele>140</ele>
        <time>2007-05-01T13:35:12Z</time>
      </trkpt>
      <trkpt lat="46.29157" lon="0.35442">
        <ele>136</ele>
        <time>2007-05-01T13:35:12Z</time>
      </trkpt>
      <trkpt lat="46.29014" lon="0.35512">
        <ele>135</ele>
        <time>2007-05-01T13:35:12Z</time>
      </trkpt>
      <trkpt lat="46.28941" lon="0.35736">
        <ele>140</ele>
        <time>2007-05-01T13:35:12Z</time>
      </trkpt>
      <trkpt lat="46.28917" lon="0.35866">
        <ele>140</ele>
        <time>2007-05-01T13:35:12Z</time>
      </trkpt>
      <trkpt lat="46.28565" lon="0.35568">
        <ele>135</ele>
        <time>2007-05-01T13:35:12Z</time>
      </trkpt>
      <trkpt lat="46.28457" lon="0.35552">
        <ele>133</ele>
        <time>2007-05-01T13:35:12Z</time>
      </trkpt>
      <trkpt lat="46.28421" lon="0.35566">
        <ele>130</ele>
        <time>2007-05-01T13:35:12Z</time>
      </trkpt>
      <trkpt lat="46.28419" lon="0.35735">
        <ele>130</ele>
        <time>2007-05-01T13:35:12Z</time>
      </trkpt>
      <trkpt lat="46.28339" lon="0.35797">
        <ele>122</ele>
        <time>2007-05-01T13:35:12Z</time>
      </trkpt>
      <trkpt lat="46.28318" lon="0.35869">
        <ele>122</ele>
        <time>2007-05-01T13:35:12Z</time>
      </trkpt>
      <trkpt lat="46.2826" lon="0.35897">
        <ele>117</ele>
        <time>2007-05-01T13:35:12Z</time>
      </trkpt>
      <trkpt lat="46.28196" lon="0.35834">
        <ele>112</ele>
        <time>2007-05-01T13:35:12Z</time>
      </trkpt>
      <trkpt lat="46.2785" lon="0.35873">
        <ele>112</ele>
        <time>2007-05-01T13:35:12Z</time>
      </trkpt>
      <trkpt lat="46.27798" lon="0.35712">
        <ele>114</ele>
        <time>2007-05-01T13:35:12Z</time>
      </trkpt>
      <trkpt lat="46.27789" lon="0.35706">
        <ele>114</ele>
        <time>2007-05-01T13:35:12Z</time>
      </trkpt>
      <trkpt lat="46.27686" lon="0.35736">
        <ele>113</ele>
        <time>2007-05-01T13:35:12Z</time>
      </trkpt>
      <trkpt lat="46.27682" lon="0.35749">
        <ele>113</ele>
        <time>2007-05-01T13:35:12Z</time>
      </trkpt>
    </trkseg>
  </trk>
  <trk>
    <name><![CDATA[Trk007]]></name>
    <trkseg>
      <trkpt lat="46.32874" lon="0.25154">
        <ele>148</ele>
        <time>2007-05-01T13:35:12Z</time>
      </trkpt>
      <trkpt lat="46.32981" lon="0.25344">
        <ele>150</ele>
        <time>2007-05-01T13:35:12Z</time>
      </trkpt>
      <trkpt lat="46.33203" lon="0.25433">
        <ele>140</ele>
        <time>2007-05-01T13:35:12Z</time>
      </trkpt>
      <trkpt lat="46.33333" lon="0.25435">
        <ele>129</ele>
        <time>2007-05-01T13:35:12Z</time>
      </trkpt>
      <trkpt lat="46.33511" lon="0.25545">
        <ele>129</ele>
        <time>2007-05-01T13:35:12Z</time>
      </trkpt>
      <trkpt lat="46.33825" lon="0.25514">
        <ele>127</ele>
        <time>2007-05-01T13:35:12Z</time>
      </trkpt>
      <trkpt lat="46.3408" lon="0.25179">
        <ele>119</ele>
        <time>2007-05-01T13:35:12Z</time>
      </trkpt>
      <trkpt lat="46.3416" lon="0.25111">
        <ele>118</ele>
        <time>2007-05-01T13:35:12Z</time>
      </trkpt>
      <trkpt lat="46.34349" lon="0.25136">
        <ele>111</ele>
        <time>2007-05-01T13:35:12Z</time>
      </trkpt>
      <trkpt lat="46.34409" lon="0.25173">
        <ele>110</ele>
        <time>2007-05-01T13:35:12Z</time>
      </trkpt>
      <trkpt lat="46.34534" lon="0.25136">
        <ele>110</ele>
        <time>2007-05-01T13:35:12Z</time>
      </trkpt>
      <trkpt lat="46.34637" lon="0.25112">
        <ele>107</ele>
        <time>2007-05-01T13:35:12Z</time>
      </trkpt>
      <trkpt lat="46.34799" lon="0.25099">
        <ele>106</ele>
        <time>2007-05-01T13:35:12Z</time>
      </trkpt>
      <trkpt lat="46.34884" lon="0.25083">
        <ele>107</ele>
        <time>2007-05-01T13:35:12Z</time>
      </trkpt>
      <trkpt lat="46.34891" lon="0.24972">
        <ele>111</ele>
        <time>2007-05-01T13:35:12Z</time>
      </trkpt>
      <trkpt lat="46.34939" lon="0.2488">
        <ele>114</ele>
        <time>2007-05-01T13:35:12Z</time>
      </trkpt>
      <trkpt lat="46.35207" lon="0.24811">
        <ele>110</ele>
        <time>2007-05-01T13:35:12Z</time>
      </trkpt>
      <trkpt lat="46.34939" lon="0.2488">
        <ele>114</ele>
        <time>2007-05-01T13:35:12Z</time>
      </trkpt>
      <trkpt lat="46.34891" lon="0.24972">
        <ele>111</ele>
        <time>2007-05-01T13:35:12Z</time>
      </trkpt>
      <trkpt lat="46.34828" lon="0.25007">
        <ele>111</ele>
        <time>2007-05-01T13:35:12Z</time>
      </trkpt>
      <trkpt lat="46.34364" lon="0.2496">
        <ele>119</ele>
        <time>2007-05-01T13:35:12Z</time>
      </trkpt>
      <trkpt lat="46.34156" lon="0.2489">
        <ele>114</ele>
        <time>2007-05-01T13:35:12Z</time>
      </trkpt>
      <trkpt lat="46.33928" lon="0.24756">
        <ele>116</ele>
        <time>2007-05-01T13:35:12Z</time>
      </trkpt>
      <trkpt lat="46.33764" lon="0.24639">
        <ele>115</ele>
        <time>2007-05-01T13:35:12Z</time>
      </trkpt>
      <trkpt lat="46.33647" lon="0.2439">
        <ele>120</ele>
        <time>2007-05-01T13:35:12Z</time>
      </trkpt>
      <trkpt lat="46.33578" lon="0.24315">
        <ele>120</ele>
        <time>2007-05-01T13:35:12Z</time>
      </trkpt>
      <trkpt lat="46.33519" lon="0.24518">
        <ele>119</ele>
        <time>2007-05-01T13:35:12Z</time>
      </trkpt>
      <trkpt lat="46.33433" lon="0.24509">
        <ele>122</ele>
        <time>2007-05-01T13:35:12Z</time>
      </trkpt>
      <trkpt lat="46.33306" lon="0.24448">
        <ele>129</ele>
        <time>2007-05-01T13:35:12Z</time>
      </trkpt>
      <trkpt lat="46.33161" lon="0.24376">
        <ele>132</ele>
        <time>2007-05-01T13:35:12Z</time>
      </trkpt>
      <trkpt lat="46.3293" lon="0.24314">
        <ele>132</ele>
        <time>2007-05-01T13:35:12Z</time>
      </trkpt>
      <trkpt lat="46.32894" lon="0.24315">
        <ele>131</ele>
        <time>2007-05-01T13:35:12Z</time>
      </trkpt>
      <trkpt lat="46.32956" lon="0.24468">
        <ele>138</ele>
        <time>2007-05-01T13:35:12Z</time>
      </trkpt>
      <trkpt lat="46.33005" lon="0.24707">
        <ele>143</ele>
        <time>2007-05-01T13:35:12Z</time>
      </trkpt>
      <trkpt lat="46.33038" lon="0.24803">
        <ele>146</ele>
        <time>2007-05-01T13:35:12Z</time>
      </trkpt>
      <trkpt lat="46.32963" lon="0.24897">
        <ele>146</ele>
        <time>2007-05-01T13:35:12Z</time>
      </trkpt>
      <trkpt lat="46.32874" lon="0.25154">
        <ele>148</ele>
        <time>2007-05-01T13:35:12Z</time>
      </trkpt>
    </trkseg>
  </trk>
  <trk>
    <name><![CDATA[Trk008]]></name>
    <trkseg>
      <trkpt lat="46.3124" lon="0.29119">
        <ele>119</ele>
        <time>2007-05-01T13:35:12Z</time>
      </trkpt>
      <trkpt lat="46.3141" lon="0.29295">
        <ele>114</ele>
        <time>2007-05-01T13:35:12Z</time>
      </trkpt>
      <trkpt lat="46.31384" lon="0.29348">
        <ele>112</ele>
        <time>2007-05-01T13:35:12Z</time>
      </trkpt>
      <trkpt lat="46.31348" lon="0.29336">
        <ele>110</ele>
        <time>2007-05-01T13:35:12Z</time>
      </trkpt>
      <trkpt lat="46.3127" lon="0.29261">
        <ele>109</ele>
        <time>2007-05-01T13:35:12Z</time>
      </trkpt>
      <trkpt lat="46.31234" lon="0.29282">
        <ele>104</ele>
        <time>2007-05-01T13:35:12Z</time>
      </trkpt>
      <trkpt lat="46.31187" lon="0.29387">
        <ele>104</ele>
        <time>2007-05-01T13:35:12Z</time>
      </trkpt>
      <trkpt lat="46.3127" lon="0.29755">
        <ele>113</ele>
        <time>2007-05-01T13:35:12Z</time>
      </trkpt>
      <trkpt lat="46.31251" lon="0.29957">
        <ele>122</ele>
        <time>2007-05-01T13:35:12Z</time>
      </trkpt>
      <trkpt lat="46.31282" lon="0.30157">
        <ele>134</ele>
        <time>2007-05-01T13:35:12Z</time>
      </trkpt>
      <trkpt lat="46.31369" lon="0.3027">
        <ele>138</ele>
        <time>2007-05-01T13:35:12Z</time>
      </trkpt>
      <trkpt lat="46.31428" lon="0.30288">
        <ele>132</ele>
        <time>2007-05-01T13:35:12Z</time>
      </trkpt>
      <trkpt lat="46.31454" lon="0.30241">
        <ele>127</ele>
        <time>2007-05-01T13:35:12Z</time>
      </trkpt>
      <trkpt lat="46.3141" lon="0.30061">
        <ele>122</ele>
        <time>2007-05-01T13:35:12Z</time>
      </trkpt>
      <trkpt lat="46.31575" lon="0.30185">
        <ele>146</ele>
        <time>2007-05-01T13:35:12Z</time>
      </trkpt>
      <trkpt lat="46.31929" lon="0.30392">
        <ele>163</ele>
        <time>2007-05-01T13:35:12Z</time>
      </trkpt>
      <trkpt lat="46.32032" lon="0.30577">
        <ele>173</ele>
        <time>2007-05-01T13:35:12Z</time>
      </trkpt>
      <trkpt lat="46.32061" lon="0.30939">
        <ele>184</ele>
        <time>2007-05-01T13:35:12Z</time>
      </trkpt>
      <trkpt lat="46.32079" lon="0.31212">
        <ele>185</ele>
        <time>2007-05-01T13:35:12Z</time>
      </trkpt>
      <trkpt lat="46.32068" lon="0.31348">
        <ele>180</ele>
        <time>2007-05-01T13:35:12Z</time>
      </trkpt>
      <trkpt lat="46.32088" lon="0.31458">
        <ele>178</ele>
        <time>2007-05-01T13:35:12Z</time>
      </trkpt>
      <trkpt lat="46.32202" lon="0.31558">
        <ele>181</ele>
        <time>2007-05-01T13:35:12Z</time>
      </trkpt>
      <trkpt lat="46.32321" lon="0.31638">
        <ele>187</ele>
        <time>2007-05-01T13:35:12Z</time>
      </trkpt>
      <trkpt lat="46.32416" lon="0.31667">
        <ele>187</ele>
        <time>2007-05-01T13:35:12Z</time>
      </trkpt>
      <trkpt lat="46.32466" lon="0.31749">
        <ele>178</ele>
        <time>2007-05-01T13:35:12Z</time>
      </trkpt>
      <trkpt lat="46.32543" lon="0.3174">
        <ele>172</ele>
        <time>2007-05-01T13:35:12Z</time>
      </trkpt>
      <trkpt lat="46.32594" lon="0.31602">
        <ele>173</ele>
        <time>2007-05-01T13:35:12Z</time>
      </trkpt>
      <trkpt lat="46.3266" lon="0.31502">
        <ele>174</ele>
        <time>2007-05-01T13:35:12Z</time>
      </trkpt>
      <trkpt lat="46.32707" lon="0.31338">
        <ele>180</ele>
        <time>2007-05-01T13:35:12Z</time>
      </trkpt>
      <trkpt lat="46.32747" lon="0.31304">
        <ele>178</ele>
        <time>2007-05-01T13:35:12Z</time>
      </trkpt>
      <trkpt lat="46.32664" lon="0.31209">
        <ele>188</ele>
        <time>2007-05-01T13:35:12Z</time>
      </trkpt>
      <trkpt lat="46.32582" lon="0.31186">
        <ele>193</ele>
        <time>2007-05-01T13:35:12Z</time>
      </trkpt>
      <trkpt lat="46.32478" lon="0.31106">
        <ele>194</ele>
        <time>2007-05-01T13:35:12Z</time>
      </trkpt>
      <trkpt lat="46.32442" lon="0.31133">
        <ele>194</ele>
        <time>2007-05-01T13:35:12Z</time>
      </trkpt>
      <trkpt lat="46.32333" lon="0.31053">
        <ele>193</ele>
        <time>2007-05-01T13:35:12Z</time>
      </trkpt>
      <trkpt lat="46.32301" lon="0.31275">
        <ele>191</ele>
        <time>2007-05-01T13:35:12Z</time>
      </trkpt>
      <trkpt lat="46.32169" lon="0.31208">
        <ele>189</ele>
        <time>2007-05-01T13:35:12Z</time>
      </trkpt>
      <trkpt lat="46.32092" lon="0.31458">
        <ele>178</ele>
        <time>2007-05-01T13:35:12Z</time>
      </trkpt>
      <trkpt lat="46.31919" lon="0.31308">
        <ele>176</ele>
        <time>2007-05-01T13:35:12Z</time>
      </trkpt>
      <trkpt lat="46.31795" lon="0.3119">
        <ele>170</ele>
        <time>2007-05-01T13:35:12Z</time>
      </trkpt>
      <trkpt lat="46.31667" lon="0.31103">
        <ele>164</ele>
        <time>2007-05-01T13:35:12Z</time>
      </trkpt>
      <trkpt lat="46.31508" lon="0.31005">
        <ele>157</ele>
        <time>2007-05-01T13:35:12Z</time>
      </trkpt>
      <trkpt lat="46.31444" lon="0.30956">
        <ele>156</ele>
        <time>2007-05-01T13:35:12Z</time>
      </trkpt>
      <trkpt lat="46.31366" lon="0.30855">
        <ele>153</ele>
        <time>2007-05-01T13:35:12Z</time>
      </trkpt>
      <trkpt lat="46.31229" lon="0.30743">
        <ele>149</ele>
        <time>2007-05-01T13:35:12Z</time>
      </trkpt>
      <trkpt lat="46.3098" lon="0.30655">
        <ele>145</ele>
        <time>2007-05-01T13:35:12Z</time>
      </trkpt>
      <trkpt lat="46.30774" lon="0.30708">
        <ele>142</ele>
        <time>2007-05-01T13:35:12Z</time>
      </trkpt>
      <trkpt lat="46.30628" lon="0.30616">
        <ele>135</ele>
        <time>2007-05-01T13:35:12Z</time>
      </trkpt>
      <trkpt lat="46.30525" lon="0.30614">
        <ele>135</ele>
        <time>2007-05-01T13:35:12Z</time>
      </trkpt>
      <trkpt lat="46.30325" lon="0.30498">
        <ele>136</ele>
        <time>2007-05-01T13:35:12Z</time>
      </trkpt>
      <trkpt lat="46.3026" lon="0.30422">
        <ele>135</ele>
        <time>2007-05-01T13:35:12Z</time>
      </trkpt>
      <trkpt lat="46.30064" lon="0.30293">
        <ele>135</ele>
        <time>2007-05-01T13:35:12Z</time>
      </trkpt>
      <trkpt lat="46.29942" lon="0.3022">
        <ele>132</ele>
        <time>2007-05-01T13:35:12Z</time>
      </trkpt>
      <trkpt lat="46.2987" lon="0.30255">
        <ele>123</ele>
        <time>2007-05-01T13:35:12Z</time>
      </trkpt>
      <trkpt lat="46.29826" lon="0.30302">
        <ele>114</ele>
        <time>2007-05-01T13:35:12Z</time>
      </trkpt>
      <trkpt lat="46.29735" lon="0.30266">
        <ele>111</ele>
        <time>2007-05-01T13:35:12Z</time>
      </trkpt>
    </trkseg>
  </trk>
  <trk>
    <name><![CDATA[Trk009]]></name>
    <trkseg>
      <trkpt lat="46.29497" lon="0.29256">
        <ele>140</ele>
        <time>2007-05-01T13:35:12Z</time>
      </trkpt>
      <trkpt lat="46.2938" lon="0.28994">
        <ele>142</ele>
        <time>2007-05-01T13:35:12Z</time>
      </trkpt>
      <trkpt lat="46.29345" lon="0.28801">
        <ele>144</ele>
        <time>2007-05-01T13:35:12Z</time>
      </trkpt>
      <trkpt lat="46.29189" lon="0.28631">
        <ele>145</ele>
        <time>2007-05-01T13:35:12Z</time>
      </trkpt>
      <trkpt lat="46.29132" lon="0.2875">
        <ele>144</ele>
        <time>2007-05-01T13:35:12Z</time>
      </trkpt>
      <trkpt lat="46.28889" lon="0.2876">
        <ele>142</ele>
        <time>2007-05-01T13:35:12Z</time>
      </trkpt>
      <trkpt lat="46.28675" lon="0.28612">
        <ele>140</ele>
        <time>2007-05-01T13:35:12Z</time>
      </trkpt>
      <trkpt lat="46.28538" lon="0.28714">
        <ele>129</ele>
        <time>2007-05-01T13:35:12Z</time>
      </trkpt>
      <trkpt lat="46.28498" lon="0.28781">
        <ele>134</ele>
        <time>2007-05-01T13:35:12Z</time>
      </trkpt>
      <trkpt lat="46.2831" lon="0.28807">
        <ele>141</ele>
        <time>2007-05-01T13:35:12Z</time>
      </trkpt>
      <trkpt lat="46.28202" lon="0.28837">
        <ele>138</ele>
        <time>2007-05-01T13:35:12Z</time>
      </trkpt>
      <trkpt lat="46.28126" lon="0.28827">
        <ele>139</ele>
        <time>2007-05-01T13:35:12Z</time>
      </trkpt>
      <trkpt lat="46.28032" lon="0.28883">
        <ele>140</ele>
        <time>2007-05-01T13:35:12Z</time>
      </trkpt>
      <trkpt lat="46.27878" lon="0.29083">
        <ele>137</ele>
        <time>2007-05-01T13:35:12Z</time>
      </trkpt>
      <trkpt lat="46.2775" lon="0.29211">
        <ele>135</ele>
        <time>2007-05-01T13:35:12Z</time>
      </trkpt>
      <trkpt lat="46.27753" lon="0.29652">
        <ele>141</ele>
        <time>2007-05-01T13:35:12Z</time>
      </trkpt>
      <trkpt lat="46.27111" lon="0.29936">
        <ele>142</ele>
        <time>2007-05-01T13:35:12Z</time>
      </trkpt>
      <trkpt lat="46.27027" lon="0.30037">
        <ele>143</ele>
        <time>2007-05-01T13:35:12Z</time>
      </trkpt>
      <trkpt lat="46.27062" lon="0.3049">
        <ele>137</ele>
        <time>2007-05-01T13:35:12Z</time>
      </trkpt>
      <trkpt lat="46.27098" lon="0.30722">
        <ele>138</ele>
        <time>2007-05-01T13:35:12Z</time>
      </trkpt>
      <trkpt lat="46.27163" lon="0.30849">
        <ele>138</ele>
        <time>2007-05-01T13:35:12Z</time>
      </trkpt>
      <trkpt lat="46.2722" lon="0.30769">
        <ele>137</ele>
        <time>2007-05-01T13:35:12Z</time>
      </trkpt>
      <trkpt lat="46.27298" lon="0.3061">
        <ele>142</ele>
        <time>2007-05-01T13:35:12Z</time>
      </trkpt>
      <trkpt lat="46.27345" lon="0.30732">
        <ele>141</ele>
        <time>2007-05-01T13:35:12Z</time>
      </trkpt>
      <trkpt lat="46.27587" lon="0.30918">
        <ele>144</ele>
        <time>2007-05-01T13:35:12Z</time>
      </trkpt>
      <trkpt lat="46.2778" lon="0.30904">
        <ele>140</ele>
        <time>2007-05-01T13:35:12Z</time>
      </trkpt>
      <trkpt lat="46.27789" lon="0.30612">
        <ele>141</ele>
        <time>2007-05-01T13:35:12Z</time>
      </trkpt>
      <trkpt lat="46.27758" lon="0.30405">
        <ele>141</ele>
        <time>2007-05-01T13:35:12Z</time>
      </trkpt>
      <trkpt lat="46.2777" lon="0.30093">
        <ele>139</ele>
        <time>2007-05-01T13:35:12Z</time>
      </trkpt>
      <trkpt lat="46.27753" lon="0.29652">
        <ele>141</ele>
        <time>2007-05-01T13:35:12Z</time>
      </trkpt>
      <trkpt lat="46.27901" lon="0.29595">
        <ele>137</ele>
        <time>2007-05-01T13:35:12Z</time>
      </trkpt>
      <trkpt lat="46.28077" lon="0.29608">
        <ele>140</ele>
        <time>2007-05-01T13:35:12Z</time>
      </trkpt>
      <trkpt lat="46.28208" lon="0.29668">
        <ele>142</ele>
        <time>2007-05-01T13:35:12Z</time>
      </trkpt>
      <trkpt lat="46.28317" lon="0.29729">
        <ele>143</ele>
        <time>2007-05-01T13:35:12Z</time>
      </trkpt>
      <trkpt lat="46.28473" lon="0.29645">
        <ele>143</ele>
        <time>2007-05-01T13:35:12Z</time>
      </trkpt>
      <trkpt lat="46.2872" lon="0.29837">
        <ele>142</ele>
        <time>2007-05-01T13:35:12Z</time>
      </trkpt>
      <trkpt lat="46.28917" lon="0.29778">
        <ele>139</ele>
        <time>2007-05-01T13:35:12Z</time>
      </trkpt>
      <trkpt lat="46.28956" lon="0.29731">
        <ele>138</ele>
        <time>2007-05-01T13:35:12Z</time>
      </trkpt>
      <trkpt lat="46.29138" lon="0.29795">
        <ele>136</ele>
        <time>2007-05-01T13:35:12Z</time>
      </trkpt>
      <trkpt lat="46.29179" lon="0.29865">
        <ele>135</ele>
        <time>2007-05-01T13:35:12Z</time>
      </trkpt>
      <trkpt lat="46.29172" lon="0.29937">
        <ele>135</ele>
        <time>2007-05-01T13:35:12Z</time>
      </trkpt>
      <trkpt lat="46.29295" lon="0.30056">
        <ele>133</ele>
        <time>2007-05-01T13:35:12Z</time>
      </trkpt>
      <trkpt lat="46.29301" lon="0.30107">
        <ele>132</ele>
        <time>2007-05-01T13:35:12Z</time>
      </trkpt>
      <trkpt lat="46.29245" lon="0.30259">
        <ele>131</ele>
        <time>2007-05-01T13:35:12Z</time>
      </trkpt>
      <trkpt lat="46.29265" lon="0.30602">
        <ele>132</ele>
        <time>2007-05-01T13:35:12Z</time>
      </trkpt>
      <trkpt lat="46.29239" lon="0.307">
        <ele>131</ele>
        <time>2007-05-01T13:35:12Z</time>
      </trkpt>
      <trkpt lat="46.29295" lon="0.30802">
        <ele>128</ele>
        <time>2007-05-01T13:35:12Z</time>
      </trkpt>
      <trkpt lat="46.2939" lon="0.30831">
        <ele>123</ele>
        <time>2007-05-01T13:35:12Z</time>
      </trkpt>
      <trkpt lat="46.29507" lon="0.30846">
        <ele>119</ele>
        <time>2007-05-01T13:35:12Z</time>
      </trkpt>
      <trkpt lat="46.29547" lon="0.30773">
        <ele>114</ele>
        <time>2007-05-01T13:35:12Z</time>
      </trkpt>
      <trkpt lat="46.29549" lon="0.30669">
        <ele>110</ele>
        <time>2007-05-01T13:35:12Z</time>
      </trkpt>
      <trkpt lat="46.29457" lon="0.30536">
        <ele>116</ele>
        <time>2007-05-01T13:35:12Z</time>
      </trkpt>
      <trkpt lat="46.29406" lon="0.30435">
        <ele>118</ele>
        <time>2007-05-01T13:35:12Z</time>
      </trkpt>
      <trkpt lat="46.29442" lon="0.30199">
        <ele>106</ele>
        <time>2007-05-01T13:35:12Z</time>
      </trkpt>
      <trkpt lat="46.29541" lon="0.29988">
        <ele>105</ele>
        <time>2007-05-01T13:35:12Z</time>
      </trkpt>
    </trkseg>
  </trk>
  <trk>
    <name><![CDATA[Trk010]]></name>
    <trkseg>
      <trkpt lat="46.27793" lon="0.35713">
        <ele>114</ele>
        <time>2007-05-01T13:35:12Z</time>
      </trkpt>
      <trkpt lat="46.27793" lon="0.35713">
        <ele>114</ele>
        <time>2007-05-01T13:35:12Z</time>
      </trkpt>
      <trkpt lat="46.27798" lon="0.35712">
        <ele>114</ele>
        <time>2007-05-01T13:35:12Z</time>
      </trkpt>
      <trkpt lat="46.27794" lon="0.35719">
        <ele>114</ele>
        <time>2007-05-01T13:35:12Z</time>
      </trkpt>
      <trkpt lat="46.27789" lon="0.35719">
        <ele>114</ele>
        <time>2007-05-01T13:35:12Z</time>
      </trkpt>
      <trkpt lat="46.27789" lon="0.35719">
        <ele>114</ele>
        <time>2007-05-01T13:35:12Z</time>
      </trkpt>
      <trkpt lat="46.27803" lon="0.35725">
        <ele>113</ele>
        <time>2007-05-01T13:35:12Z</time>
      </trkpt>
      <trkpt lat="46.27798" lon="0.35719">
        <ele>114</ele>
        <time>2007-05-01T13:35:12Z</time>
      </trkpt>
      <trkpt lat="46.27803" lon="0.35719">
        <ele>114</ele>
        <time>2007-05-01T13:35:12Z</time>
      </trkpt>
      <trkpt lat="46.27789" lon="0.35726">
        <ele>114</ele>
        <time>2007-05-01T13:35:12Z</time>
      </trkpt>
      <trkpt lat="46.27794" lon="0.35725">
        <ele>114</ele>
        <time>2007-05-01T13:35:12Z</time>
      </trkpt>
      <trkpt lat="46.27798" lon="0.35725">
        <ele>113</ele>
        <time>2007-05-01T13:35:12Z</time>
      </trkpt>
      <trkpt lat="46.27794" lon="0.35719">
        <ele>114</ele>
        <time>2007-05-01T13:35:12Z</time>
      </trkpt>
      <trkpt lat="46.27798" lon="0.35712">
        <ele>114</ele>
        <time>2007-05-01T13:35:12Z</time>
      </trkpt>
      <trkpt lat="46.27798" lon="0.35719">
        <ele>114</ele>
        <time>2007-05-01T13:35:12Z</time>
      </trkpt>
      <trkpt lat="46.27803" lon="0.35719">
        <ele>114</ele>
        <time>2007-05-01T13:35:12Z</time>
      </trkpt>
      <trkpt lat="46.27798" lon="0.35719">
        <ele>114</ele>
        <time>2007-05-01T13:35:12Z</time>
      </trkpt>
      <trkpt lat="46.27681" lon="0.35743">
        <ele>113</ele>
        <time>2007-05-01T13:35:12Z</time>
      </trkpt>
      <trkpt lat="46.27635" lon="0.359">
        <ele>113</ele>
        <time>2007-05-01T13:35:12Z</time>
      </trkpt>
      <trkpt lat="46.27591" lon="0.35979">
        <ele>113</ele>
        <time>2007-05-01T13:35:12Z</time>
      </trkpt>
      <trkpt lat="46.2766" lon="0.3634">
        <ele>113</ele>
        <time>2007-05-01T13:35:12Z</time>
      </trkpt>
      <trkpt lat="46.27595" lon="0.367">
        <ele>118</ele>
        <time>2007-05-01T13:35:12Z</time>
      </trkpt>
      <trkpt lat="46.27555" lon="0.36766">
        <ele>121</ele>
        <time>2007-05-01T13:35:12Z</time>
      </trkpt>
      <trkpt lat="46.27535" lon="0.36877">
        <ele>122</ele>
        <time>2007-05-01T13:35:12Z</time>
      </trkpt>
      <trkpt lat="46.27083" lon="0.36783">
        <ele>129</ele>
        <time>2007-05-01T13:35:12Z</time>
      </trkpt>
      <trkpt lat="46.27034" lon="0.36545">
        <ele>125</ele>
        <time>2007-05-01T13:35:12Z</time>
      </trkpt>
      <trkpt lat="46.26905" lon="0.36355">
        <ele>119</ele>
        <time>2007-05-01T13:35:12Z</time>
      </trkpt>
      <trkpt lat="46.26929" lon="0.36185">
        <ele>117</ele>
        <time>2007-05-01T13:35:12Z</time>
      </trkpt>
      <trkpt lat="46.2689" lon="0.36005">
        <ele>116</ele>
        <time>2007-05-01T13:35:12Z</time>
      </trkpt>
      <trkpt lat="46.26796" lon="0.35775">
        <ele>115</ele>
        <time>2007-05-01T13:35:12Z</time>
      </trkpt>
      <trkpt lat="46.26676" lon="0.35623">
        <ele>116</ele>
        <time>2007-05-01T13:35:12Z</time>
      </trkpt>
      <trkpt lat="46.26487" lon="0.35624">
        <ele>123</ele>
        <time>2007-05-01T13:35:12Z</time>
      </trkpt>
      <trkpt lat="46.26351" lon="0.35557">
        <ele>125</ele>
        <time>2007-05-01T13:35:12Z</time>
      </trkpt>
      <trkpt lat="46.26245" lon="0.35438">
        <ele>125</ele>
        <time>2007-05-01T13:35:12Z</time>
      </trkpt>
      <trkpt lat="46.26105" lon="0.35423">
        <ele>127</ele>
        <time>2007-05-01T13:35:12Z</time>
      </trkpt>
      <trkpt lat="46.26105" lon="0.35411">
        <ele>127</ele>
        <time>2007-05-01T13:35:12Z</time>
      </trkpt>
      <trkpt lat="46.26105" lon="0.35423">
        <ele>127</ele>
        <time>2007-05-01T13:35:12Z</time>
      </trkpt>
      <trkpt lat="46.26105" lon="0.35417">
        <ele>127</ele>
        <time>2007-05-01T13:35:12Z</time>
      </trkpt>
      <trkpt lat="46.26067" lon="0.35516">
        <ele>128</ele>
        <time>2007-05-01T13:35:12Z</time>
      </trkpt>
      <trkpt lat="46.25944" lon="0.35715">
        <ele>129</ele>
        <time>2007-05-01T13:35:12Z</time>
      </trkpt>
      <trkpt lat="46.25882" lon="0.35788">
        <ele>130</ele>
        <time>2007-05-01T13:35:12Z</time>
      </trkpt>
      <trkpt lat="46.25725" lon="0.35775">
        <ele>129</ele>
        <time>2007-05-01T13:35:12Z</time>
      </trkpt>
      <trkpt lat="46.25672" lon="0.35835">
        <ele>128</ele>
        <time>2007-05-01T13:35:12Z</time>
      </trkpt>
      <trkpt lat="46.25516" lon="0.35919">
        <ele>125</ele>
        <time>2007-05-01T13:35:12Z</time>
      </trkpt>
      <trkpt lat="46.25441" lon="0.36019">
        <ele>128</ele>
        <time>2007-05-01T13:35:12Z</time>
      </trkpt>
      <trkpt lat="46.25324" lon="0.36049">
        <ele>125</ele>
        <time>2007-05-01T13:35:12Z</time>
      </trkpt>
      <trkpt lat="46.25157" lon="0.36509">
        <ele>138</ele>
        <time>2007-05-01T13:35:12Z</time>
      </trkpt>
      <trkpt lat="46.252" lon="0.36637">
        <ele>137</ele>
        <time>2007-05-01T13:35:12Z</time>
      </trkpt>
      <trkpt lat="46.25207" lon="0.36792">
        <ele>135</ele>
        <time>2007-05-01T13:35:12Z</time>
      </trkpt>
      <trkpt lat="46.25288" lon="0.37055">
        <ele>131</ele>
        <time>2007-05-01T13:35:12Z</time>
      </trkpt>
      <trkpt lat="46.2538" lon="0.37201">
        <ele>131</ele>
        <time>2007-05-01T13:35:12Z</time>
      </trkpt>
      <trkpt lat="46.25506" lon="0.37437">
        <ele>129</ele>
        <time>2007-05-01T13:35:12Z</time>
      </trkpt>
      <trkpt lat="46.25586" lon="0.37616">
        <ele>129</ele>
        <time>2007-05-01T13:35:12Z</time>
      </trkpt>
      <trkpt lat="46.25705" lon="0.37728">
        <ele>133</ele>
        <time>2007-05-01T13:35:12Z</time>
      </trkpt>
      <trkpt lat="46.25783" lon="0.37816">
        <ele>133</ele>
        <time>2007-05-01T13:35:12Z</time>
      </trkpt>
      <trkpt lat="46.25927" lon="0.37863">
        <ele>138</ele>
        <time>2007-05-01T13:35:12Z</time>
      </trkpt>
      <trkpt lat="46.2592" lon="0.37947">
        <ele>137</ele>
        <time>2007-05-01T13:35:12Z</time>
      </trkpt>
      <trkpt lat="46.25894" lon="0.3802">
        <ele>138</ele>
        <time>2007-05-01T13:35:12Z</time>
      </trkpt>
      <trkpt lat="46.25887" lon="0.38137">
        <ele>141</ele>
        <time>2007-05-01T13:35:12Z</time>
      </trkpt>
      <trkpt lat="46.25888" lon="0.38422">
        <ele>145</ele>
        <time>2007-05-01T13:35:12Z</time>
      </trkpt>
      <trkpt lat="46.25861" lon="0.38475">
        <ele>145</ele>
        <time>2007-05-01T13:35:12Z</time>
      </trkpt>
      <trkpt lat="46.25934" lon="0.3879">
        <ele>141</ele>
        <time>2007-05-01T13:35:12Z</time>
      </trkpt>
      <trkpt lat="46.25886" lon="0.38876">
        <ele>140</ele>
        <time>2007-05-01T13:35:12Z</time>
      </trkpt>
      <trkpt lat="46.2591" lon="0.3894">
        <ele>141</ele>
        <time>2007-05-01T13:35:12Z</time>
      </trkpt>
      <trkpt lat="46.25961" lon="0.39003">
        <ele>142</ele>
        <time>2007-05-01T13:35:12Z</time>
      </trkpt>
      <trkpt lat="46.25705" lon="0.39045">
        <ele>136</ele>
        <time>2007-05-01T13:35:12Z</time>
      </trkpt>
      <trkpt lat="46.25461" lon="0.38995">
        <ele>140</ele>
        <time>2007-05-01T13:35:12Z</time>
      </trkpt>
      <trkpt lat="46.25277" lon="0.39015">
        <ele>137</ele>
        <time>2007-05-01T13:35:12Z</time>
      </trkpt>
      <trkpt lat="46.25003" lon="0.38798">
        <ele>141</ele>
        <time>2007-05-01T13:35:12Z</time>
      </trkpt>
      <trkpt lat="46.24827" lon="0.38765">
        <ele>137</ele>
        <time>2007-05-01T13:35:12Z</time>
      </trkpt>
      <trkpt lat="46.24732" lon="0.38742">
        <ele>135</ele>
        <time>2007-05-01T13:35:12Z</time>
      </trkpt>
      <trkpt lat="46.24733" lon="0.38781">
        <ele>136</ele>
        <time>2007-05-01T13:35:12Z</time>
      </trkpt>
      <trkpt lat="46.2473" lon="0.38892">
        <ele>136</ele>
        <time>2007-05-01T13:35:12Z</time>
      </trkpt>
      <trkpt lat="46.248" lon="0.38999">
        <ele>139</ele>
        <time>2007-05-01T13:35:12Z</time>
      </trkpt>
      <trkpt lat="46.24748" lon="0.39163">
        <ele>140</ele>
        <time>2007-05-01T13:35:12Z</time>
      </trkpt>
      <trkpt lat="46.24585" lon="0.39357">
        <ele>139</ele>
        <time>2007-05-01T13:35:12Z</time>
      </trkpt>
      <trkpt lat="46.24684" lon="0.396">
        <ele>146</ele>
        <time>2007-05-01T13:35:12Z</time>
      </trkpt>
      <trkpt lat="46.24747" lon="0.3987">
        <ele>148</ele>
        <time>2007-05-01T13:35:12Z</time>
      </trkpt>
      <trkpt lat="46.25193" lon="0.40147">
        <ele>146</ele>
        <time>2007-05-01T13:35:12Z</time>
      </trkpt>
      <trkpt lat="46.25684" lon="0.40479">
        <ele>133</ele>
        <time>2007-05-01T13:35:12Z</time>
      </trkpt>
      <trkpt lat="46.25956" lon="0.40567">
        <ele>121</ele>
        <time>2007-05-01T13:35:12Z</time>
      </trkpt>
      <trkpt lat="46.25988" lon="0.40585">
        <ele>120</ele>
        <time>2007-05-01T13:35:12Z</time>
      </trkpt>
      <trkpt lat="46.25993" lon="0.4065">
        <ele>121</ele>
        <time>2007-05-01T13:35:12Z</time>
      </trkpt>
      <trkpt lat="46.25917" lon="0.40692">
        <ele>121</ele>
        <time>2007-05-01T13:35:12Z</time>
      </trkpt>
      <trkpt lat="46.25905" lon="0.40763">
        <ele>122</ele>
        <time>2007-05-01T13:35:12Z</time>
      </trkpt>
      <trkpt lat="46.25958" lon="0.40969">
        <ele>132</ele>
        <time>2007-05-01T13:35:12Z</time>
      </trkpt>
      <trkpt lat="46.25986" lon="0.41001">
        <ele>134</ele>
        <time>2007-05-01T13:35:12Z</time>
      </trkpt>
      <trkpt lat="46.25964" lon="0.41047">
        <ele>134</ele>
        <time>2007-05-01T13:35:12Z</time>
      </trkpt>
      <trkpt lat="46.25988" lon="0.41137">
        <ele>135</ele>
        <time>2007-05-01T13:35:12Z</time>
      </trkpt>
      <trkpt lat="46.25944" lon="0.41184">
        <ele>135</ele>
        <time>2007-05-01T13:35:12Z</time>
      </trkpt>
      <trkpt lat="46.25926" lon="0.41217">
        <ele>134</ele>
        <time>2007-05-01T13:35:12Z</time>
      </trkpt>
      <trkpt lat="46.26018" lon="0.41324">
        <ele>137</ele>
        <time>2007-05-01T13:35:12Z</time>
      </trkpt>
      <trkpt lat="46.26051" lon="0.41401">
        <ele>138</ele>
        <time>2007-05-01T13:35:12Z</time>
      </trkpt>
      <trkpt lat="46.26044" lon="0.41505">
        <ele>138</ele>
        <time>2007-05-01T13:35:12Z</time>
      </trkpt>
      <trkpt lat="46.26089" lon="0.41542">
        <ele>138</ele>
        <time>2007-05-01T13:35:12Z</time>
      </trkpt>
      <trkpt lat="46.26123" lon="0.41664">
        <ele>138</ele>
        <time>2007-05-01T13:35:12Z</time>
      </trkpt>
      <trkpt lat="46.26192" lon="0.41759">
        <ele>139</ele>
        <time>2007-05-01T13:35:12Z</time>
      </trkpt>
      <trkpt lat="46.26126" lon="0.42118">
        <ele>140</ele>
        <time>2007-05-01T13:35:12Z</time>
      </trkpt>
      <trkpt lat="46.26037" lon="0.42173">
        <ele>132</ele>
        <time>2007-05-01T13:35:12Z</time>
      </trkpt>
      <trkpt lat="46.26021" lon="0.42303">
        <ele>132</ele>
        <time>2007-05-01T13:35:12Z</time>
      </trkpt>
      <trkpt lat="46.25861" lon="0.42659">
        <ele>135</ele>
        <time>2007-05-01T13:35:12Z</time>
      </trkpt>
      <trkpt lat="46.25857" lon="0.42731">
        <ele>136</ele>
        <time>2007-05-01T13:35:12Z</time>
      </trkpt>
      <trkpt lat="46.25594" lon="0.42824">
        <ele>123</ele>
        <time>2007-05-01T13:35:12Z</time>
      </trkpt>
      <trkpt lat="46.25465" lon="0.42933">
        <ele>125</ele>
        <time>2007-05-01T13:35:12Z</time>
      </trkpt>
      <trkpt lat="46.25349" lon="0.43015">
        <ele>131</ele>
        <time>2007-05-01T13:35:12Z</time>
      </trkpt>
      <trkpt lat="46.25185" lon="0.43397">
        <ele>133</ele>
        <time>2007-05-01T13:35:12Z</time>
      </trkpt>
      <trkpt lat="46.25011" lon="0.4374">
        <ele>135</ele>
        <time>2007-05-01T13:35:12Z</time>
      </trkpt>
      <trkpt lat="46.24879" lon="0.43965">
        <ele>138</ele>
        <time>2007-05-01T13:35:12Z</time>
      </trkpt>
      <trkpt lat="46.24692" lon="0.44049">
        <ele>138</ele>
        <time>2007-05-01T13:35:12Z</time>
      </trkpt>
      <trkpt lat="46.24479" lon="0.44245">
        <ele>133</ele>
        <time>2007-05-01T13:35:12Z</time>
      </trkpt>
      <trkpt lat="46.24333" lon="0.44373">
        <ele>139</ele>
        <time>2007-05-01T13:35:12Z</time>
      </trkpt>
      <trkpt lat="46.2425" lon="0.44519">
        <ele>132</ele>
        <time>2007-05-01T13:35:12Z</time>
      </trkpt>
      <trkpt lat="46.24124" lon="0.44568">
        <ele>143</ele>
        <time>2007-05-01T13:35:12Z</time>
      </trkpt>
      <trkpt lat="46.24083" lon="0.44784">
        <ele>145</ele>
        <time>2007-05-01T13:35:12Z</time>
      </trkpt>
      <trkpt lat="46.23991" lon="0.44949">
        <ele>141</ele>
        <time>2007-05-01T13:35:12Z</time>
      </trkpt>
      <trkpt lat="46.23804" lon="0.44768">
        <ele>150</ele>
        <time>2007-05-01T13:35:12Z</time>
      </trkpt>
      <trkpt lat="46.23615" lon="0.45338">
        <ele>142</ele>
        <time>2007-05-01T13:35:12Z</time>
      </trkpt>
      <trkpt lat="46.23399" lon="0.45061">
        <ele>159</ele>
        <time>2007-05-01T13:35:12Z</time>
      </trkpt>
      <trkpt lat="46.2324" lon="0.44716">
        <ele>156</ele>
        <time>2007-05-01T13:35:12Z</time>
      </trkpt>
      <trkpt lat="46.22824" lon="0.44283">
        <ele>154</ele>
        <time>2007-05-01T13:35:12Z</time>
      </trkpt>
      <trkpt lat="46.22517" lon="0.44255">
        <ele>150</ele>
        <time>2007-05-01T13:35:12Z</time>
      </trkpt>
      <trkpt lat="46.22285" lon="0.44107">
        <ele>152</ele>
        <time>2007-05-01T13:35:12Z</time>
      </trkpt>
      <trkpt lat="46.22305" lon="0.44236">
        <ele>152</ele>
        <time>2007-05-01T13:35:12Z</time>
      </trkpt>
      <trkpt lat="46.22281" lon="0.44373">
        <ele>153</ele>
        <time>2007-05-01T13:35:12Z</time>
      </trkpt>
      <trkpt lat="46.22138" lon="0.44689">
        <ele>154</ele>
        <time>2007-05-01T13:35:12Z</time>
      </trkpt>
      <trkpt lat="46.22" lon="0.4483">
        <ele>154</ele>
        <time>2007-05-01T13:35:12Z</time>
      </trkpt>
      <trkpt lat="46.2189" lon="0.45502">
        <ele>158</ele>
        <time>2007-05-01T13:35:12Z</time>
      </trkpt>
      <trkpt lat="46.21854" lon="0.45762">
        <ele>161</ele>
        <time>2007-05-01T13:35:12Z</time>
      </trkpt>
      <trkpt lat="46.21758" lon="0.45966">
        <ele>164</ele>
        <time>2007-05-01T13:35:12Z</time>
      </trkpt>
      <trkpt lat="46.217" lon="0.46241">
        <ele>167</ele>
        <time>2007-05-01T13:35:12Z</time>
      </trkpt>
      <trkpt lat="46.2163" lon="0.46399">
        <ele>169</ele>
        <time>2007-05-01T13:35:12Z</time>
      </trkpt>
      <trkpt lat="46.21591" lon="0.46478">
        <ele>169</ele>
        <time>2007-05-01T13:35:12Z</time>
      </trkpt>
      <trkpt lat="46.21563" lon="0.46667">
        <ele>166</ele>
        <time>2007-05-01T13:35:12Z</time>
      </trkpt>
      <trkpt lat="46.21598" lon="0.46892">
        <ele>161</ele>
        <time>2007-05-01T13:35:12Z</time>
      </trkpt>
      <trkpt lat="46.21521" lon="0.47103">
        <ele>156</ele>
        <time>2007-05-01T13:35:12Z</time>
      </trkpt>
      <trkpt lat="46.21462" lon="0.47357">
        <ele>160</ele>
        <time>2007-05-01T13:35:12Z</time>
      </trkpt>
      <trkpt lat="46.21437" lon="0.47481">
        <ele>158</ele>
        <time>2007-05-01T13:35:12Z</time>
      </trkpt>
      <trkpt lat="46.21457" lon="0.47636">
        <ele>153</ele>
        <time>2007-05-01T13:35:12Z</time>
      </trkpt>
      <trkpt lat="46.21577" lon="0.48053">
        <ele>151</ele>
        <time>2007-05-01T13:35:12Z</time>
      </trkpt>
      <trkpt lat="46.21484" lon="0.48446">
        <ele>141</ele>
        <time>2007-05-01T13:35:12Z</time>
      </trkpt>
      <trkpt lat="46.21562" lon="0.48547">
        <ele>140</ele>
        <time>2007-05-01T13:35:12Z</time>
      </trkpt>
      <trkpt lat="46.21528" lon="0.48658">
        <ele>135</ele>
        <time>2007-05-01T13:35:12Z</time>
      </trkpt>
      <trkpt lat="46.21516" lon="0.48769">
        <ele>128</ele>
        <time>2007-05-01T13:35:12Z</time>
      </trkpt>
      <trkpt lat="46.2145" lon="0.48849">
        <ele>133</ele>
        <time>2007-05-01T13:35:12Z</time>
      </trkpt>
      <trkpt lat="46.21107" lon="0.49035">
        <ele>147</ele>
        <time>2007-05-01T13:35:12Z</time>
      </trkpt>
      <trkpt lat="46.20888" lon="0.49107">
        <ele>145</ele>
        <time>2007-05-01T13:35:12Z</time>
      </trkpt>
      <trkpt lat="46.20843" lon="0.49161">
        <ele>147</ele>
        <time>2007-05-01T13:35:12Z</time>
      </trkpt>
      <trkpt lat="46.20618" lon="0.4913">
        <ele>149</ele>
        <time>2007-05-01T13:35:12Z</time>
      </trkpt>
      <trkpt lat="46.2045" lon="0.49297">
        <ele>154</ele>
        <time>2007-05-01T13:35:12Z</time>
      </trkpt>
      <trkpt lat="46.20427" lon="0.49304">
        <ele>153</ele>
        <time>2007-05-01T13:35:12Z</time>
      </trkpt>
      <trkpt lat="46.20365" lon="0.49365">
        <ele>151</ele>
        <time>2007-05-01T13:35:12Z</time>
      </trkpt>
      <trkpt lat="46.2028" lon="0.49361">
        <ele>145</ele>
        <time>2007-05-01T13:35:12Z</time>
      </trkpt>
      <trkpt lat="46.20278" lon="0.49543">
        <ele>145</ele>
        <time>2007-05-01T13:35:12Z</time>
      </trkpt>
      <trkpt lat="46.2024" lon="0.497">
        <ele>147</ele>
        <time>2007-05-01T13:35:12Z</time>
      </trkpt>
      <trkpt lat="46.20027" lon="0.49623">
        <ele>142</ele>
        <time>2007-05-01T13:35:12Z</time>
      </trkpt>
      <trkpt lat="46.19746" lon="0.49775">
        <ele>141</ele>
        <time>2007-05-01T13:35:12Z</time>
      </trkpt>
      <trkpt lat="46.19607" lon="0.49766">
        <ele>141</ele>
        <time>2007-05-01T13:35:12Z</time>
      </trkpt>
      <trkpt lat="46.19578" lon="0.49903">
        <ele>143</ele>
        <time>2007-05-01T13:35:12Z</time>
      </trkpt>
      <trkpt lat="46.19528" lon="0.49925">
        <ele>144</ele>
        <time>2007-05-01T13:35:12Z</time>
      </trkpt>
      <trkpt lat="46.19632" lon="0.50226">
        <ele>154</ele>
        <time>2007-05-01T13:35:12Z</time>
      </trkpt>
      <trkpt lat="46.19896" lon="0.50651">
        <ele>154</ele>
        <time>2007-05-01T13:35:12Z</time>
      </trkpt>
      <trkpt lat="46.20135" lon="0.51012">
        <ele>155</ele>
        <time>2007-05-01T13:35:12Z</time>
      </trkpt>
      <trkpt lat="46.20315" lon="0.51272">
        <ele>150</ele>
        <time>2007-05-01T13:35:12Z</time>
      </trkpt>
      <trkpt lat="46.21669" lon="0.52089">
        <ele>141</ele>
        <time>2007-05-01T13:35:12Z</time>
      </trkpt>
      <trkpt lat="46.21865" lon="0.52264">
        <ele>135</ele>
        <time>2007-05-01T13:35:12Z</time>
      </trkpt>
      <trkpt lat="46.21967" lon="0.52429">
        <ele>137</ele>
        <time>2007-05-01T13:35:12Z</time>
      </trkpt>
      <trkpt lat="46.22037" lon="0.52861">
        <ele>144</ele>
        <time>2007-05-01T13:35:12Z</time>
      </trkpt>
      <trkpt lat="46.22067" lon="0.53028">
        <ele>147</ele>
        <time>2007-05-01T13:35:12Z</time>
      </trkpt>
      <trkpt lat="46.22098" lon="0.5304">
        <ele>148</ele>
        <time>2007-05-01T13:35:12Z</time>
      </trkpt>
    </trkseg>
  </trk>
  <trk>
    <name><![CDATA[Trk011]]></name>
    <trkseg>
      <trkpt lat="46.25306" lon="0.36043">
        <ele>125</ele>
        <time>2007-05-01T13:35:12Z</time>
      </trkpt>
      <trkpt lat="46.2526" lon="0.35993">
        <ele>122</ele>
        <time>2007-05-01T13:35:12Z</time>
      </trkpt>
      <trkpt lat="46.25268" lon="0.35921">
        <ele>120</ele>
        <time>2007-05-01T13:35:12Z</time>
      </trkpt>
      <trkpt lat="46.25218" lon="0.35871">
        <ele>119</ele>
        <time>2007-05-01T13:35:12Z</time>
      </trkpt>
      <trkpt lat="46.25133" lon="0.35887">
        <ele>119</ele>
        <time>2007-05-01T13:35:12Z</time>
      </trkpt>
      <trkpt lat="46.25092" lon="0.35908">
        <ele>120</ele>
        <time>2007-05-01T13:35:12Z</time>
      </trkpt>
      <trkpt lat="46.25" lon="0.35788">
        <ele>125</ele>
        <time>2007-05-01T13:35:12Z</time>
      </trkpt>
      <trkpt lat="46.24989" lon="0.35672">
        <ele>129</ele>
        <time>2007-05-01T13:35:12Z</time>
      </trkpt>
      <trkpt lat="46.24912" lon="0.35616">
        <ele>130</ele>
        <time>2007-05-01T13:35:12Z</time>
      </trkpt>
      <trkpt lat="46.24642" lon="0.35606">
        <ele>130</ele>
        <time>2007-05-01T13:35:12Z</time>
      </trkpt>
      <trkpt lat="46.24686" lon="0.353">
        <ele>135</ele>
        <time>2007-05-01T13:35:12Z</time>
      </trkpt>
      <trkpt lat="46.24665" lon="0.35139">
        <ele>138</ele>
        <time>2007-05-01T13:35:12Z</time>
      </trkpt>
      <trkpt lat="46.2459" lon="0.34973">
        <ele>140</ele>
        <time>2007-05-01T13:35:12Z</time>
      </trkpt>
      <trkpt lat="46.24582" lon="0.34746">
        <ele>140</ele>
        <time>2007-05-01T13:35:12Z</time>
      </trkpt>
      <trkpt lat="46.24478" lon="0.34503">
        <ele>131</ele>
        <time>2007-05-01T13:35:12Z</time>
      </trkpt>
      <trkpt lat="46.24437" lon="0.34446">
        <ele>130</ele>
        <time>2007-05-01T13:35:12Z</time>
      </trkpt>
      <trkpt lat="46.24525" lon="0.34346">
        <ele>127</ele>
        <time>2007-05-01T13:35:12Z</time>
      </trkpt>
      <trkpt lat="46.24556" lon="0.34312">
        <ele>127</ele>
        <time>2007-05-01T13:35:12Z</time>
      </trkpt>
      <trkpt lat="46.24548" lon="0.34125">
        <ele>123</ele>
        <time>2007-05-01T13:35:12Z</time>
      </trkpt>
      <trkpt lat="46.24594" lon="0.33896">
        <ele>122</ele>
        <time>2007-05-01T13:35:12Z</time>
      </trkpt>
      <trkpt lat="46.24594" lon="0.33656">
        <ele>120</ele>
        <time>2007-05-01T13:35:12Z</time>
      </trkpt>
      <trkpt lat="46.24586" lon="0.33442">
        <ele>120</ele>
        <time>2007-05-01T13:35:12Z</time>
      </trkpt>
      <trkpt lat="46.24625" lon="0.33402">
        <ele>120</ele>
        <time>2007-05-01T13:35:12Z</time>
      </trkpt>
      <trkpt lat="46.24524" lon="0.33263">
        <ele>120</ele>
        <time>2007-05-01T13:35:12Z</time>
      </trkpt>
      <trkpt lat="46.24327" lon="0.3305">
        <ele>120</ele>
        <time>2007-05-01T13:35:12Z</time>
      </trkpt>
      <trkpt lat="46.24443" lon="0.3276">
        <ele>130</ele>
        <time>2007-05-01T13:35:12Z</time>
      </trkpt>
      <trkpt lat="46.24845" lon="0.33082">
        <ele>135</ele>
        <time>2007-05-01T13:35:12Z</time>
      </trkpt>
      <trkpt lat="46.25068" lon="0.33236">
        <ele>131</ele>
        <time>2007-05-01T13:35:12Z</time>
      </trkpt>
      <trkpt lat="46.25118" lon="0.3328">
        <ele>130</ele>
        <time>2007-05-01T13:35:12Z</time>
      </trkpt>
      <trkpt lat="46.25194" lon="0.33251">
        <ele>130</ele>
        <time>2007-05-01T13:35:12Z</time>
      </trkpt>
      <trkpt lat="46.25262" lon="0.33268">
        <ele>130</ele>
        <time>2007-05-01T13:35:12Z</time>
      </trkpt>
      <trkpt lat="46.25304" lon="0.33098">
        <ele>135</ele>
        <time>2007-05-01T13:35:12Z</time>
      </trkpt>
      <trkpt lat="46.25379" lon="0.33011">
        <ele>135</ele>
        <time>2007-05-01T13:35:12Z</time>
      </trkpt>
      <trkpt lat="46.25413" lon="0.32893">
        <ele>136</ele>
        <time>2007-05-01T13:35:12Z</time>
      </trkpt>
      <trkpt lat="46.25428" lon="0.3273">
        <ele>138</ele>
        <time>2007-05-01T13:35:12Z</time>
      </trkpt>
      <trkpt lat="46.25346" lon="0.32435">
        <ele>140</ele>
        <time>2007-05-01T13:35:12Z</time>
      </trkpt>
      <trkpt lat="46.25862" lon="0.32863">
        <ele>142</ele>
        <time>2007-05-01T13:35:12Z</time>
      </trkpt>
      <trkpt lat="46.25969" lon="0.32548">
        <ele>141</ele>
        <time>2007-05-01T13:35:12Z</time>
      </trkpt>
      <trkpt lat="46.26034" lon="0.32396">
        <ele>141</ele>
        <time>2007-05-01T13:35:12Z</time>
      </trkpt>
      <trkpt lat="46.26062" lon="0.32188">
        <ele>141</ele>
        <time>2007-05-01T13:35:12Z</time>
      </trkpt>
      <trkpt lat="46.26204" lon="0.31819">
        <ele>140</ele>
        <time>2007-05-01T13:35:12Z</time>
      </trkpt>
      <trkpt lat="46.26583" lon="0.32162">
        <ele>140</ele>
        <time>2007-05-01T13:35:12Z</time>
      </trkpt>
      <trkpt lat="46.26594" lon="0.3198">
        <ele>140</ele>
        <time>2007-05-01T13:35:12Z</time>
      </trkpt>
      <trkpt lat="46.26678" lon="0.31678">
        <ele>143</ele>
        <time>2007-05-01T13:35:12Z</time>
      </trkpt>
      <trkpt lat="46.26697" lon="0.31457">
        <ele>146</ele>
        <time>2007-05-01T13:35:12Z</time>
      </trkpt>
      <trkpt lat="46.26739" lon="0.31287">
        <ele>148</ele>
        <time>2007-05-01T13:35:12Z</time>
      </trkpt>
      <trkpt lat="46.26938" lon="0.31078">
        <ele>145</ele>
        <time>2007-05-01T13:35:12Z</time>
      </trkpt>
      <trkpt lat="46.27149" lon="0.3085">
        <ele>139</ele>
        <time>2007-05-01T13:35:12Z</time>
      </trkpt>
    </trkseg>
  </trk>
  <trk>
    <name><![CDATA[Trk012]]></name>
    <trkseg>
      <trkpt lat="46.25124" lon="0.5486">
        <ele>145</ele>
        <time>2007-04-22T21:48:02Z</time>
      </trkpt>
      <trkpt lat="46.25213" lon="0.54539">
        <ele>143</ele>
        <time>2007-04-22T21:48:02Z</time>
      </trkpt>
      <trkpt lat="46.25196" lon="0.54313">
        <ele>140</ele>
        <time>2007-04-22T21:48:02Z</time>
      </trkpt>
      <trkpt lat="46.25179" lon="0.54041">
        <ele>139</ele>
        <time>2007-04-22T21:48:02Z</time>
      </trkpt>
      <trkpt lat="46.25232" lon="0.53695">
        <ele>140</ele>
        <time>2007-04-22T21:48:02Z</time>
      </trkpt>
      <trkpt lat="46.24826" lon="0.5367">
        <ele>141</ele>
        <time>2007-04-22T21:48:02Z</time>
      </trkpt>
      <trkpt lat="46.24493" lon="0.53636">
        <ele>145</ele>
        <time>2007-04-22T21:48:02Z</time>
      </trkpt>
      <trkpt lat="46.2429" lon="0.53597">
        <ele>142</ele>
        <time>2007-04-22T21:48:02Z</time>
      </trkpt>
      <trkpt lat="46.24178" lon="0.53685">
        <ele>144</ele>
        <time>2007-04-22T21:48:02Z</time>
      </trkpt>
      <trkpt lat="46.24158" lon="0.53536">
        <ele>142</ele>
        <time>2007-04-22T21:48:02Z</time>
      </trkpt>
      <trkpt lat="46.24101" lon="0.53603">
        <ele>144</ele>
        <time>2007-04-22T21:48:02Z</time>
      </trkpt>
      <trkpt lat="46.24041" lon="0.53813">
        <ele>144</ele>
        <time>2007-04-22T21:48:02Z</time>
      </trkpt>
      <trkpt lat="46.2396" lon="0.53796">
        <ele>142</ele>
        <time>2007-04-22T21:48:02Z</time>
      </trkpt>
      <trkpt lat="46.23945" lon="0.53997">
        <ele>144</ele>
        <time>2007-04-22T21:48:02Z</time>
      </trkpt>
      <trkpt lat="46.23759" lon="0.53913">
        <ele>137</ele>
        <time>2007-04-22T21:48:02Z</time>
      </trkpt>
      <trkpt lat="46.23568" lon="0.53783">
        <ele>135</ele>
        <time>2007-04-22T21:48:02Z</time>
      </trkpt>
      <trkpt lat="46.23463" lon="0.53404">
        <ele>142</ele>
        <time>2007-04-22T21:48:02Z</time>
      </trkpt>
      <trkpt lat="46.23342" lon="0.53135">
        <ele>145</ele>
        <time>2007-04-22T21:48:02Z</time>
      </trkpt>
      <trkpt lat="46.23261" lon="0.53138">
        <ele>145</ele>
        <time>2007-04-22T21:48:02Z</time>
      </trkpt>
      <trkpt lat="46.2312" lon="0.53052">
        <ele>143</ele>
        <time>2007-04-22T21:48:02Z</time>
      </trkpt>
      <trkpt lat="46.23052" lon="0.53028">
        <ele>141</ele>
        <time>2007-04-22T21:48:02Z</time>
      </trkpt>
      <trkpt lat="46.23008" lon="0.53082">
        <ele>139</ele>
        <time>2007-04-22T21:48:02Z</time>
      </trkpt>
      <trkpt lat="46.22998" lon="0.53283">
        <ele>142</ele>
        <time>2007-04-22T21:48:02Z</time>
      </trkpt>
      <trkpt lat="46.22829" lon="0.53697">
        <ele>138</ele>
        <time>2007-04-22T21:48:02Z</time>
      </trkpt>
      <trkpt lat="46.22689" lon="0.53974">
        <ele>138</ele>
        <time>2007-04-22T21:48:02Z</time>
      </trkpt>
      <trkpt lat="46.22606" lon="0.54385">
        <ele>141</ele>
        <time>2007-04-22T21:48:02Z</time>
      </trkpt>
      <trkpt lat="46.22411" lon="0.54301">
        <ele>144</ele>
        <time>2007-04-22T21:48:02Z</time>
      </trkpt>
      <trkpt lat="46.22288" lon="0.54233">
        <ele>148</ele>
        <time>2007-04-22T21:48:02Z</time>
      </trkpt>
      <trkpt lat="46.22129" lon="0.54427">
        <ele>149</ele>
        <time>2007-04-22T21:48:02Z</time>
      </trkpt>
      <trkpt lat="46.22104" lon="0.54538">
        <ele>145</ele>
        <time>2007-04-22T21:48:02Z</time>
      </trkpt>
      <trkpt lat="46.21835" lon="0.54592">
        <ele>150</ele>
        <time>2007-04-22T21:48:02Z</time>
      </trkpt>
      <trkpt lat="46.21739" lon="0.54478">
        <ele>149</ele>
        <time>2007-04-22T21:48:02Z</time>
      </trkpt>
      <trkpt lat="46.21687" lon="0.54325">
        <ele>147</ele>
        <time>2007-04-22T21:48:02Z</time>
      </trkpt>
      <trkpt lat="46.21657" lon="0.54118">
        <ele>148</ele>
        <time>2007-04-22T21:48:02Z</time>
      </trkpt>
      <trkpt lat="46.21686" lon="0.53962">
        <ele>147</ele>
        <time>2007-04-22T21:48:02Z</time>
      </trkpt>
      <trkpt lat="46.21724" lon="0.53552">
        <ele>142</ele>
        <time>2007-04-22T21:48:02Z</time>
      </trkpt>
      <trkpt lat="46.21671" lon="0.53307">
        <ele>135</ele>
        <time>2007-04-22T21:48:02Z</time>
      </trkpt>
      <trkpt lat="46.21747" lon="0.53033">
        <ele>136</ele>
        <time>2007-04-22T21:48:02Z</time>
      </trkpt>
    </trkseg>
  </trk>
  <trk>
    <name><![CDATA[Trk013]]></name>
    <trkseg>
      <trkpt lat="46.2126" lon="0.74839">
        <ele>174</ele>
        <time>2007-04-22T21:47:25Z</time>
      </trkpt>
      <trkpt lat="46.21445" lon="0.74581">
        <ele>155</ele>
        <time>2007-04-22T21:47:25Z</time>
      </trkpt>
      <trkpt lat="46.21584" lon="0.74532">
        <ele>151</ele>
        <time>2007-04-22T21:47:25Z</time>
      </trkpt>
      <trkpt lat="46.21646" lon="0.74459">
        <ele>161</ele>
        <time>2007-04-22T21:47:25Z</time>
      </trkpt>
      <trkpt lat="46.21711" lon="0.74262">
        <ele>169</ele>
        <time>2007-04-22T21:47:25Z</time>
      </trkpt>
      <trkpt lat="46.22019" lon="0.74415">
        <ele>141</ele>
        <time>2007-04-22T21:47:25Z</time>
      </trkpt>
      <trkpt lat="46.22133" lon="0.74503">
        <ele>130</ele>
        <time>2007-04-22T21:47:25Z</time>
      </trkpt>
      <trkpt lat="46.22111" lon="0.74277">
        <ele>136</ele>
        <time>2007-04-22T21:47:25Z</time>
      </trkpt>
      <trkpt lat="46.22063" lon="0.74025">
        <ele>160</ele>
        <time>2007-04-22T21:47:25Z</time>
      </trkpt>
      <trkpt lat="46.22106" lon="0.73888">
        <ele>182</ele>
        <time>2007-04-22T21:47:25Z</time>
      </trkpt>
      <trkpt lat="46.2214" lon="0.73777">
        <ele>189</ele>
        <time>2007-04-22T21:47:25Z</time>
      </trkpt>
      <trkpt lat="46.22101" lon="0.7357">
        <ele>187</ele>
        <time>2007-04-22T21:47:25Z</time>
      </trkpt>
      <trkpt lat="46.22193" lon="0.73386">
        <ele>185</ele>
        <time>2007-04-22T21:47:25Z</time>
      </trkpt>
      <trkpt lat="46.22183" lon="0.73322">
        <ele>184</ele>
        <time>2007-04-22T21:47:25Z</time>
      </trkpt>
      <trkpt lat="46.22386" lon="0.73043">
        <ele>175</ele>
        <time>2007-04-22T21:47:25Z</time>
      </trkpt>
      <trkpt lat="46.22535" lon="0.72449">
        <ele>159</ele>
        <time>2007-04-22T21:47:25Z</time>
      </trkpt>
      <trkpt lat="46.22627" lon="0.72213">
        <ele>175</ele>
        <time>2007-04-22T21:47:25Z</time>
      </trkpt>
      <trkpt lat="46.22681" lon="0.71913">
        <ele>185</ele>
        <time>2007-04-22T21:47:25Z</time>
      </trkpt>
      <trkpt lat="46.22806" lon="0.7152">
        <ele>186</ele>
        <time>2007-04-22T21:47:25Z</time>
      </trkpt>
      <trkpt lat="46.23076" lon="0.70631">
        <ele>174</ele>
        <time>2007-04-22T21:47:25Z</time>
      </trkpt>
      <trkpt lat="46.23085" lon="0.70313">
        <ele>172</ele>
        <time>2007-04-22T21:47:25Z</time>
      </trkpt>
      <trkpt lat="46.23176" lon="0.7007">
        <ele>174</ele>
        <time>2007-04-22T21:47:25Z</time>
      </trkpt>
      <trkpt lat="46.23256" lon="0.69983">
        <ele>174</ele>
        <time>2007-04-22T21:47:25Z</time>
      </trkpt>
      <trkpt lat="46.23283" lon="0.69684">
        <ele>171</ele>
        <time>2007-04-22T21:47:25Z</time>
      </trkpt>
      <trkpt lat="46.23595" lon="0.69766">
        <ele>168</ele>
        <time>2007-04-22T21:47:25Z</time>
      </trkpt>
      <trkpt lat="46.23726" lon="0.6982">
        <ele>166</ele>
        <time>2007-04-22T21:47:25Z</time>
      </trkpt>
      <trkpt lat="46.24016" lon="0.69967">
        <ele>148</ele>
        <time>2007-04-22T21:47:25Z</time>
      </trkpt>
      <trkpt lat="46.24201" lon="0.69987">
        <ele>137</ele>
        <time>2007-04-22T21:47:25Z</time>
      </trkpt>
      <trkpt lat="46.24023" lon="0.69539">
        <ele>157</ele>
        <time>2007-04-22T21:47:25Z</time>
      </trkpt>
      <trkpt lat="46.24002" lon="0.69319">
        <ele>160</ele>
        <time>2007-04-22T21:47:25Z</time>
      </trkpt>
      <trkpt lat="46.2397" lon="0.69274">
        <ele>161</ele>
        <time>2007-04-22T21:47:25Z</time>
      </trkpt>
      <trkpt lat="46.24045" lon="0.69136">
        <ele>161</ele>
        <time>2007-04-22T21:47:25Z</time>
      </trkpt>
      <trkpt lat="46.23967" lon="0.69074">
        <ele>161</ele>
        <time>2007-04-22T21:47:25Z</time>
      </trkpt>
      <trkpt lat="46.24028" lon="0.68955">
        <ele>158</ele>
        <time>2007-04-22T21:47:25Z</time>
      </trkpt>
      <trkpt lat="46.24077" lon="0.68869">
        <ele>153</ele>
        <time>2007-04-22T21:47:25Z</time>
      </trkpt>
      <trkpt lat="46.24106" lon="0.68726">
        <ele>140</ele>
        <time>2007-04-22T21:47:25Z</time>
      </trkpt>
      <trkpt lat="46.24213" lon="0.68658">
        <ele>132</ele>
        <time>2007-04-22T21:47:25Z</time>
      </trkpt>
      <trkpt lat="46.2399" lon="0.68502">
        <ele>133</ele>
        <time>2007-04-22T21:47:25Z</time>
      </trkpt>
      <trkpt lat="46.23943" lon="0.68348">
        <ele>133</ele>
        <time>2007-04-22T21:47:25Z</time>
      </trkpt>
      <trkpt lat="46.23735" lon="0.68238">
        <ele>134</ele>
        <time>2007-04-22T21:47:25Z</time>
      </trkpt>
      <trkpt lat="46.23626" lon="0.68196">
        <ele>133</ele>
        <time>2007-04-22T21:47:25Z</time>
      </trkpt>
      <trkpt lat="46.23563" lon="0.68223">
        <ele>130</ele>
        <time>2007-04-22T21:47:25Z</time>
      </trkpt>
      <trkpt lat="46.23466" lon="0.68025">
        <ele>120</ele>
        <time>2007-04-22T21:47:25Z</time>
      </trkpt>
      <trkpt lat="46.23322" lon="0.67712">
        <ele>114</ele>
        <time>2007-04-22T21:47:25Z</time>
      </trkpt>
      <trkpt lat="46.2322" lon="0.67482">
        <ele>132</ele>
        <time>2007-04-22T21:47:25Z</time>
      </trkpt>
      <trkpt lat="46.23093" lon="0.67414">
        <ele>136</ele>
        <time>2007-04-22T21:47:25Z</time>
      </trkpt>
      <trkpt lat="46.23153" lon="0.67257">
        <ele>138</ele>
        <time>2007-04-22T21:47:25Z</time>
      </trkpt>
      <trkpt lat="46.2312" lon="0.67161">
        <ele>140</ele>
        <time>2007-04-22T21:47:25Z</time>
      </trkpt>
      <trkpt lat="46.23178" lon="0.66822">
        <ele>157</ele>
        <time>2007-04-22T21:47:25Z</time>
      </trkpt>
      <trkpt lat="46.23166" lon="0.66867">
        <ele>155</ele>
        <time>2007-04-22T21:47:25Z</time>
      </trkpt>
      <trkpt lat="46.23098" lon="0.66578">
        <ele>158</ele>
        <time>2007-04-22T21:47:25Z</time>
      </trkpt>
      <trkpt lat="46.23186" lon="0.66095">
        <ele>149</ele>
        <time>2007-04-22T21:47:25Z</time>
      </trkpt>
      <trkpt lat="46.2318" lon="0.65687">
        <ele>120</ele>
        <time>2007-04-22T21:47:25Z</time>
      </trkpt>
      <trkpt lat="46.23188" lon="0.65349">
        <ele>116</ele>
        <time>2007-04-22T21:47:25Z</time>
      </trkpt>
      <trkpt lat="46.23188" lon="0.65369">
        <ele>116</ele>
        <time>2007-04-22T21:47:25Z</time>
      </trkpt>
      <trkpt lat="46.23169" lon="0.65259">
        <ele>116</ele>
        <time>2007-04-22T21:47:25Z</time>
      </trkpt>
      <trkpt lat="46.2328" lon="0.65185">
        <ele>122</ele>
        <time>2007-04-22T21:47:25Z</time>
      </trkpt>
      <trkpt lat="46.2331" lon="0.65112">
        <ele>124</ele>
        <time>2007-04-22T21:47:25Z</time>
      </trkpt>
      <trkpt lat="46.23215" lon="0.6505">
        <ele>124</ele>
        <time>2007-04-22T21:47:25Z</time>
      </trkpt>
      <trkpt lat="46.23257" lon="0.64822">
        <ele>133</ele>
        <time>2007-04-22T21:47:25Z</time>
      </trkpt>
      <trkpt lat="46.23366" lon="0.64592">
        <ele>133</ele>
        <time>2007-04-22T21:47:25Z</time>
      </trkpt>
      <trkpt lat="46.23393" lon="0.64332">
        <ele>139</ele>
        <time>2007-04-22T21:47:25Z</time>
      </trkpt>
      <trkpt lat="46.23338" lon="0.63944">
        <ele>153</ele>
        <time>2007-04-22T21:47:25Z</time>
      </trkpt>
      <trkpt lat="46.23335" lon="0.63769">
        <ele>156</ele>
        <time>2007-04-22T21:47:25Z</time>
      </trkpt>
      <trkpt lat="46.22986" lon="0.63592">
        <ele>154</ele>
        <time>2007-04-22T21:47:25Z</time>
      </trkpt>
      <trkpt lat="46.2309" lon="0.63025">
        <ele>146</ele>
        <time>2007-04-22T21:47:25Z</time>
      </trkpt>
      <trkpt lat="46.23096" lon="0.62545">
        <ele>144</ele>
        <time>2007-04-22T21:47:25Z</time>
      </trkpt>
      <trkpt lat="46.23016" lon="0.62301">
        <ele>141</ele>
        <time>2007-04-22T21:47:25Z</time>
      </trkpt>
      <trkpt lat="46.23013" lon="0.62074">
        <ele>144</ele>
        <time>2007-04-22T21:47:25Z</time>
      </trkpt>
      <trkpt lat="46.23091" lon="0.61897">
        <ele>144</ele>
        <time>2007-04-22T21:47:25Z</time>
      </trkpt>
      <trkpt lat="46.22979" lon="0.61654">
        <ele>144</ele>
        <time>2007-04-22T21:47:25Z</time>
      </trkpt>
      <trkpt lat="46.23147" lon="0.61441">
        <ele>151</ele>
        <time>2007-04-22T21:47:25Z</time>
      </trkpt>
      <trkpt lat="46.23208" lon="0.61284">
        <ele>152</ele>
        <time>2007-04-22T21:47:25Z</time>
      </trkpt>
      <trkpt lat="46.2317" lon="0.60896">
        <ele>157</ele>
        <time>2007-04-22T21:47:25Z</time>
      </trkpt>
      <trkpt lat="46.23068" lon="0.60354">
        <ele>161</ele>
        <time>2007-04-22T21:47:25Z</time>
      </trkpt>
      <trkpt lat="46.23031" lon="0.60018">
        <ele>160</ele>
        <time>2007-04-22T21:47:25Z</time>
      </trkpt>
      <trkpt lat="46.23045" lon="0.59733">
        <ele>158</ele>
        <time>2007-04-22T21:47:25Z</time>
      </trkpt>
      <trkpt lat="46.23069" lon="0.59278">
        <ele>160</ele>
        <time>2007-04-22T21:47:25Z</time>
      </trkpt>
      <trkpt lat="46.2328" lon="0.58681">
        <ele>148</ele>
        <time>2007-04-22T21:47:25Z</time>
      </trkpt>
      <trkpt lat="46.23351" lon="0.57979">
        <ele>157</ele>
        <time>2007-04-22T21:47:25Z</time>
      </trkpt>
      <trkpt lat="46.23423" lon="0.57723">
        <ele>158</ele>
        <time>2007-04-22T21:47:25Z</time>
      </trkpt>
      <trkpt lat="46.23795" lon="0.57329">
        <ele>152</ele>
        <time>2007-04-22T21:47:25Z</time>
      </trkpt>
      <trkpt lat="46.24152" lon="0.57136">
        <ele>146</ele>
        <time>2007-04-22T21:47:25Z</time>
      </trkpt>
      <trkpt lat="46.24254" lon="0.57061">
        <ele>145</ele>
        <time>2007-04-22T21:47:25Z</time>
      </trkpt>
      <trkpt lat="46.24362" lon="0.5674">
        <ele>143</ele>
        <time>2007-04-22T21:47:25Z</time>
      </trkpt>
      <trkpt lat="46.24498" lon="0.56554">
        <ele>140</ele>
        <time>2007-04-22T21:47:25Z</time>
      </trkpt>
      <trkpt lat="46.2461" lon="0.56479">
        <ele>139</ele>
        <time>2007-04-22T21:47:25Z</time>
      </trkpt>
      <trkpt lat="46.24693" lon="0.56093">
        <ele>138</ele>
        <time>2007-04-22T21:47:25Z</time>
      </trkpt>
      <trkpt lat="46.24804" lon="0.5598">
        <ele>135</ele>
        <time>2007-04-22T21:47:25Z</time>
      </trkpt>
      <trkpt lat="46.24866" lon="0.55906">
        <ele>135</ele>
        <time>2007-04-22T21:47:25Z</time>
      </trkpt>
      <trkpt lat="46.25067" lon="0.55835">
        <ele>138</ele>
        <time>2007-04-22T21:47:25Z</time>
      </trkpt>
      <trkpt lat="46.25008" lon="0.55765">
        <ele>139</ele>
        <time>2007-04-22T21:47:25Z</time>
      </trkpt>
      <trkpt lat="46.25034" lon="0.557">
        <ele>140</ele>
        <time>2007-04-22T21:47:25Z</time>
      </trkpt>
      <trkpt lat="46.25044" lon="0.55193">
        <ele>144</ele>
        <time>2007-04-22T21:47:25Z</time>
      </trkpt>
      <trkpt lat="46.25102" lon="0.54893">
        <ele>146</ele>
        <time>2007-04-22T21:47:25Z</time>
      </trkpt>
    </trkseg>
  </trk>
  <trk>
    <name><![CDATA[Trk014]]></name>
    <trkseg>
      <trkpt lat="46.06796" lon="0.68084">
        <ele>127</ele>
        <time>2007-04-22T21:46:55Z</time>
      </trkpt>
      <trkpt lat="46.06868" lon="0.68043">
        <ele>129</ele>
        <time>2007-04-22T21:46:55Z</time>
      </trkpt>
      <trkpt lat="46.07008" lon="0.68071">
        <ele>127</ele>
        <time>2007-04-22T21:46:55Z</time>
      </trkpt>
      <trkpt lat="46.07019" lon="0.67961">
        <ele>129</ele>
        <time>2007-04-22T21:46:55Z</time>
      </trkpt>
      <trkpt lat="46.07127" lon="0.67906">
        <ele>132</ele>
        <time>2007-04-22T21:46:55Z</time>
      </trkpt>
      <trkpt lat="46.07133" lon="0.67738">
        <ele>140</ele>
        <time>2007-04-22T21:46:55Z</time>
      </trkpt>
      <trkpt lat="46.07369" lon="0.67847">
        <ele>135</ele>
        <time>2007-04-22T21:46:55Z</time>
      </trkpt>
      <trkpt lat="46.07543" lon="0.68042">
        <ele>129</ele>
        <time>2007-04-22T21:46:55Z</time>
      </trkpt>
      <trkpt lat="46.07627" lon="0.67956">
        <ele>137</ele>
        <time>2007-04-22T21:46:55Z</time>
      </trkpt>
      <trkpt lat="46.07716" lon="0.67888">
        <ele>139</ele>
        <time>2007-04-22T21:46:55Z</time>
      </trkpt>
      <trkpt lat="46.07855" lon="0.67897">
        <ele>137</ele>
        <time>2007-04-22T21:46:55Z</time>
      </trkpt>
      <trkpt lat="46.08007" lon="0.67808">
        <ele>140</ele>
        <time>2007-04-22T21:46:55Z</time>
      </trkpt>
      <trkpt lat="46.08429" lon="0.68041">
        <ele>139</ele>
        <time>2007-04-22T21:46:55Z</time>
      </trkpt>
      <trkpt lat="46.08682" lon="0.68098">
        <ele>142</ele>
        <time>2007-04-22T21:46:55Z</time>
      </trkpt>
      <trkpt lat="46.08819" lon="0.67622">
        <ele>154</ele>
        <time>2007-04-22T21:46:55Z</time>
      </trkpt>
      <trkpt lat="46.09054" lon="0.67705">
        <ele>155</ele>
        <time>2007-04-22T21:46:55Z</time>
      </trkpt>
      <trkpt lat="46.09321" lon="0.67801">
        <ele>143</ele>
        <time>2007-04-22T21:46:55Z</time>
      </trkpt>
      <trkpt lat="46.09556" lon="0.67891">
        <ele>162</ele>
        <time>2007-04-22T21:46:55Z</time>
      </trkpt>
      <trkpt lat="46.09727" lon="0.67898">
        <ele>165</ele>
        <time>2007-04-22T21:46:55Z</time>
      </trkpt>
      <trkpt lat="46.10032" lon="0.67799">
        <ele>157</ele>
        <time>2007-04-22T21:46:55Z</time>
      </trkpt>
      <trkpt lat="46.10426" lon="0.67664">
        <ele>154</ele>
        <time>2007-04-22T21:46:55Z</time>
      </trkpt>
      <trkpt lat="46.10523" lon="0.6757">
        <ele>155</ele>
        <time>2007-04-22T21:46:55Z</time>
      </trkpt>
      <trkpt lat="46.10955" lon="0.66975">
        <ele>143</ele>
        <time>2007-04-22T21:46:55Z</time>
      </trkpt>
      <trkpt lat="46.11071" lon="0.66887">
        <ele>139</ele>
        <time>2007-04-22T21:46:55Z</time>
      </trkpt>
      <trkpt lat="46.11281" lon="0.66751">
        <ele>139</ele>
        <time>2007-04-22T21:46:55Z</time>
      </trkpt>
      <trkpt lat="46.11325" lon="0.6644">
        <ele>144</ele>
        <time>2007-04-22T21:46:55Z</time>
      </trkpt>
      <trkpt lat="46.11344" lon="0.66193">
        <ele>140</ele>
        <time>2007-04-22T21:46:55Z</time>
      </trkpt>
      <trkpt lat="46.11485" lon="0.65949">
        <ele>146</ele>
        <time>2007-04-22T21:46:55Z</time>
      </trkpt>
      <trkpt lat="46.11627" lon="0.65816">
        <ele>146</ele>
        <time>2007-04-22T21:46:55Z</time>
      </trkpt>
      <trkpt lat="46.1167" lon="0.65672">
        <ele>148</ele>
        <time>2007-04-22T21:46:55Z</time>
      </trkpt>
      <trkpt lat="46.11751" lon="0.65721">
        <ele>145</ele>
        <time>2007-04-22T21:46:55Z</time>
      </trkpt>
      <trkpt lat="46.11907" lon="0.65904">
        <ele>133</ele>
        <time>2007-04-22T21:46:55Z</time>
      </trkpt>
      <trkpt lat="46.11994" lon="0.66018">
        <ele>123</ele>
        <time>2007-04-22T21:46:55Z</time>
      </trkpt>
      <trkpt lat="46.12047" lon="0.65926">
        <ele>123</ele>
        <time>2007-04-22T21:46:55Z</time>
      </trkpt>
      <trkpt lat="46.12195" lon="0.6618">
        <ele>123</ele>
        <time>2007-04-22T21:46:55Z</time>
      </trkpt>
      <trkpt lat="46.12278" lon="0.66067">
        <ele>124</ele>
        <time>2007-04-22T21:46:55Z</time>
      </trkpt>
      <trkpt lat="46.12471" lon="0.66288">
        <ele>136</ele>
        <time>2007-04-22T21:46:55Z</time>
      </trkpt>
      <trkpt lat="46.12598" lon="0.66368">
        <ele>153</ele>
        <time>2007-04-22T21:46:55Z</time>
      </trkpt>
      <trkpt lat="46.12691" lon="0.66301">
        <ele>156</ele>
        <time>2007-04-22T21:46:55Z</time>
      </trkpt>
      <trkpt lat="46.12685" lon="0.66482">
        <ele>170</ele>
        <time>2007-04-22T21:46:55Z</time>
      </trkpt>
      <trkpt lat="46.12781" lon="0.66609">
        <ele>188</ele>
        <time>2007-04-22T21:46:55Z</time>
      </trkpt>
      <trkpt lat="46.12848" lon="0.66859">
        <ele>204</ele>
        <time>2007-04-22T21:46:55Z</time>
      </trkpt>
      <trkpt lat="46.13022" lon="0.66789">
        <ele>202</ele>
        <time>2007-04-22T21:46:55Z</time>
      </trkpt>
      <trkpt lat="46.13172" lon="0.66855">
        <ele>202</ele>
        <time>2007-04-22T21:46:55Z</time>
      </trkpt>
      <trkpt lat="46.13258" lon="0.66911">
        <ele>205</ele>
        <time>2007-04-22T21:46:55Z</time>
      </trkpt>
      <trkpt lat="46.13276" lon="0.67176">
        <ele>206</ele>
        <time>2007-04-22T21:46:55Z</time>
      </trkpt>
      <trkpt lat="46.13346" lon="0.67361">
        <ele>199</ele>
        <time>2007-04-22T21:46:55Z</time>
      </trkpt>
      <trkpt lat="46.13318" lon="0.67608">
        <ele>193</ele>
        <time>2007-04-22T21:46:55Z</time>
      </trkpt>
      <trkpt lat="46.137" lon="0.67875">
        <ele>195</ele>
        <time>2007-04-22T21:46:55Z</time>
      </trkpt>
      <trkpt lat="46.13997" lon="0.67911">
        <ele>199</ele>
        <time>2007-04-22T21:46:55Z</time>
      </trkpt>
      <trkpt lat="46.14115" lon="0.67946">
        <ele>190</ele>
        <time>2007-04-22T21:46:55Z</time>
      </trkpt>
      <trkpt lat="46.14152" lon="0.67997">
        <ele>196</ele>
        <time>2007-04-22T21:46:55Z</time>
      </trkpt>
      <trkpt lat="46.14214" lon="0.67989">
        <ele>200</ele>
        <time>2007-04-22T21:46:55Z</time>
      </trkpt>
      <trkpt lat="46.14354" lon="0.68017">
        <ele>206</ele>
        <time>2007-04-22T21:46:55Z</time>
      </trkpt>
      <trkpt lat="46.14544" lon="0.68063">
        <ele>204</ele>
        <time>2007-04-22T21:46:55Z</time>
      </trkpt>
      <trkpt lat="46.14687" lon="0.68272">
        <ele>202</ele>
        <time>2007-04-22T21:46:55Z</time>
      </trkpt>
      <trkpt lat="46.14716" lon="0.68465">
        <ele>201</ele>
        <time>2007-04-22T21:46:55Z</time>
      </trkpt>
      <trkpt lat="46.14716" lon="0.68446">
        <ele>201</ele>
        <time>2007-04-22T21:46:55Z</time>
      </trkpt>
      <trkpt lat="46.14867" lon="0.68577">
        <ele>201</ele>
        <time>2007-04-22T21:46:55Z</time>
      </trkpt>
      <trkpt lat="46.15079" lon="0.68616">
        <ele>193</ele>
        <time>2007-04-22T21:46:55Z</time>
      </trkpt>
      <trkpt lat="46.15236" lon="0.68618">
        <ele>192</ele>
        <time>2007-04-22T21:46:55Z</time>
      </trkpt>
      <trkpt lat="46.15548" lon="0.68712">
        <ele>183</ele>
        <time>2007-04-22T21:46:55Z</time>
      </trkpt>
      <trkpt lat="46.15651" lon="0.6869">
        <ele>170</ele>
        <time>2007-04-22T21:46:55Z</time>
      </trkpt>
      <trkpt lat="46.15829" lon="0.68853">
        <ele>139</ele>
        <time>2007-04-22T21:46:55Z</time>
      </trkpt>
      <trkpt lat="46.15865" lon="0.68871">
        <ele>147</ele>
        <time>2007-04-22T21:46:55Z</time>
      </trkpt>
      <trkpt lat="46.15872" lon="0.69013">
        <ele>157</ele>
        <time>2007-04-22T21:46:55Z</time>
      </trkpt>
      <trkpt lat="46.16055" lon="0.68911">
        <ele>188</ele>
        <time>2007-04-22T21:46:55Z</time>
      </trkpt>
      <trkpt lat="46.16208" lon="0.68945">
        <ele>191</ele>
        <time>2007-04-22T21:46:55Z</time>
      </trkpt>
      <trkpt lat="46.16295" lon="0.69007">
        <ele>194</ele>
        <time>2007-04-22T21:46:55Z</time>
      </trkpt>
      <trkpt lat="46.16452" lon="0.68996">
        <ele>197</ele>
        <time>2007-04-22T21:46:55Z</time>
      </trkpt>
      <trkpt lat="46.16534" lon="0.69045">
        <ele>199</ele>
        <time>2007-04-22T21:46:55Z</time>
      </trkpt>
      <trkpt lat="46.16696" lon="0.68755">
        <ele>200</ele>
        <time>2007-04-22T21:46:55Z</time>
      </trkpt>
      <trkpt lat="46.1677" lon="0.68591">
        <ele>196</ele>
        <time>2007-04-22T21:46:55Z</time>
      </trkpt>
      <trkpt lat="46.16751" lon="0.68501">
        <ele>195</ele>
        <time>2007-04-22T21:46:55Z</time>
      </trkpt>
      <trkpt lat="46.16713" lon="0.68379">
        <ele>194</ele>
        <time>2007-04-22T21:46:55Z</time>
      </trkpt>
      <trkpt lat="46.16732" lon="0.68178">
        <ele>185</ele>
        <time>2007-04-22T21:46:55Z</time>
      </trkpt>
      <trkpt lat="46.16698" lon="0.67972">
        <ele>182</ele>
        <time>2007-04-22T21:46:55Z</time>
      </trkpt>
      <trkpt lat="46.16632" lon="0.67779">
        <ele>167</ele>
        <time>2007-04-22T21:46:55Z</time>
      </trkpt>
      <trkpt lat="46.16611" lon="0.67553">
        <ele>146</ele>
        <time>2007-04-22T21:46:55Z</time>
      </trkpt>
      <trkpt lat="46.16623" lon="0.67488">
        <ele>141</ele>
        <time>2007-04-22T21:46:55Z</time>
      </trkpt>
      <trkpt lat="46.16608" lon="0.67392">
        <ele>133</ele>
        <time>2007-04-22T21:46:55Z</time>
      </trkpt>
      <trkpt lat="46.1668" lon="0.6737">
        <ele>128</ele>
        <time>2007-04-22T21:46:55Z</time>
      </trkpt>
      <trkpt lat="46.16784" lon="0.67412">
        <ele>132</ele>
        <time>2007-04-22T21:46:55Z</time>
      </trkpt>
      <trkpt lat="46.16856" lon="0.67429">
        <ele>125</ele>
        <time>2007-04-22T21:46:55Z</time>
      </trkpt>
      <trkpt lat="46.16924" lon="0.6744">
        <ele>131</ele>
        <time>2007-04-22T21:46:55Z</time>
      </trkpt>
      <trkpt lat="46.16977" lon="0.67354">
        <ele>125</ele>
        <time>2007-04-22T21:46:55Z</time>
      </trkpt>
      <trkpt lat="46.17004" lon="0.67341">
        <ele>123</ele>
        <time>2007-04-22T21:46:55Z</time>
      </trkpt>
      <trkpt lat="46.1721" lon="0.67328">
        <ele>122</ele>
        <time>2007-04-22T21:46:55Z</time>
      </trkpt>
      <trkpt lat="46.17326" lon="0.67247">
        <ele>117</ele>
        <time>2007-04-22T21:46:55Z</time>
      </trkpt>
      <trkpt lat="46.17462" lon="0.67327">
        <ele>133</ele>
        <time>2007-04-22T21:46:55Z</time>
      </trkpt>
      <trkpt lat="46.1753" lon="0.67344">
        <ele>138</ele>
        <time>2007-04-22T21:46:55Z</time>
      </trkpt>
      <trkpt lat="46.17559" lon="0.67453">
        <ele>150</ele>
        <time>2007-04-22T21:46:55Z</time>
      </trkpt>
      <trkpt lat="46.1766" lon="0.67573">
        <ele>160</ele>
        <time>2007-04-22T21:46:55Z</time>
      </trkpt>
      <trkpt lat="46.17754" lon="0.67564">
        <ele>170</ele>
        <time>2007-04-22T21:46:55Z</time>
      </trkpt>
      <trkpt lat="46.17899" lon="0.67618">
        <ele>177</ele>
        <time>2007-04-22T21:46:55Z</time>
      </trkpt>
      <trkpt lat="46.18135" lon="0.68071">
        <ele>186</ele>
        <time>2007-04-22T21:46:55Z</time>
      </trkpt>
      <trkpt lat="46.18451" lon="0.6845">
        <ele>172</ele>
        <time>2007-04-22T21:46:55Z</time>
      </trkpt>
      <trkpt lat="46.18603" lon="0.68432">
        <ele>184</ele>
        <time>2007-04-22T21:46:55Z</time>
      </trkpt>
      <trkpt lat="46.1887" lon="0.68528">
        <ele>186</ele>
        <time>2007-04-22T21:46:55Z</time>
      </trkpt>
      <trkpt lat="46.18911" lon="0.68565">
        <ele>186</ele>
        <time>2007-04-22T21:46:55Z</time>
      </trkpt>
      <trkpt lat="46.18861" lon="0.68819">
        <ele>191</ele>
        <time>2007-04-22T21:46:55Z</time>
      </trkpt>
      <trkpt lat="46.18735" lon="0.68843">
        <ele>190</ele>
        <time>2007-04-22T21:46:55Z</time>
      </trkpt>
      <trkpt lat="46.18686" lon="0.69136">
        <ele>193</ele>
        <time>2007-04-22T21:46:55Z</time>
      </trkpt>
      <trkpt lat="46.18864" lon="0.69318">
        <ele>193</ele>
        <time>2007-04-22T21:46:55Z</time>
      </trkpt>
      <trkpt lat="46.18551" lon="0.69788">
        <ele>202</ele>
        <time>2007-04-22T21:46:55Z</time>
      </trkpt>
      <trkpt lat="46.18245" lon="0.70419">
        <ele>203</ele>
        <time>2007-04-22T21:46:55Z</time>
      </trkpt>
      <trkpt lat="46.18088" lon="0.71065">
        <ele>207</ele>
        <time>2007-04-22T21:46:55Z</time>
      </trkpt>
      <trkpt lat="46.18734" lon="0.71525">
        <ele>201</ele>
        <time>2007-04-22T21:46:55Z</time>
      </trkpt>
      <trkpt lat="46.18795" lon="0.72637">
        <ele>197</ele>
        <time>2007-04-22T21:46:55Z</time>
      </trkpt>
      <trkpt lat="46.19159" lon="0.73255">
        <ele>203</ele>
        <time>2007-04-22T21:46:55Z</time>
      </trkpt>
      <trkpt lat="46.19263" lon="0.73291">
        <ele>200</ele>
        <time>2007-04-22T21:46:55Z</time>
      </trkpt>
      <trkpt lat="46.194" lon="0.73442">
        <ele>200</ele>
        <time>2007-04-22T21:46:55Z</time>
      </trkpt>
      <trkpt lat="46.1947" lon="0.73298">
        <ele>199</ele>
        <time>2007-04-22T21:46:55Z</time>
      </trkpt>
      <trkpt lat="46.19528" lon="0.73263">
        <ele>198</ele>
        <time>2007-04-22T21:46:55Z</time>
      </trkpt>
      <trkpt lat="46.19605" lon="0.73287">
        <ele>197</ele>
        <time>2007-04-22T21:46:55Z</time>
      </trkpt>
      <trkpt lat="46.1974" lon="0.73659">
        <ele>193</ele>
        <time>2007-04-22T21:46:55Z</time>
      </trkpt>
      <trkpt lat="46.19727" lon="0.7364">
        <ele>193</ele>
        <time>2007-04-22T21:46:55Z</time>
      </trkpt>
      <trkpt lat="46.20079" lon="0.73435">
        <ele>200</ele>
        <time>2007-04-22T21:46:55Z</time>
      </trkpt>
      <trkpt lat="46.20422" lon="0.73146">
        <ele>197</ele>
        <time>2007-04-22T21:46:55Z</time>
      </trkpt>
      <trkpt lat="46.20918" lon="0.72944">
        <ele>194</ele>
        <time>2007-04-22T21:46:55Z</time>
      </trkpt>
      <trkpt lat="46.21125" lon="0.72938">
        <ele>192</ele>
        <time>2007-04-22T21:46:55Z</time>
      </trkpt>
      <trkpt lat="46.21354" lon="0.72886">
        <ele>190</ele>
        <time>2007-04-22T21:46:55Z</time>
      </trkpt>
      <trkpt lat="46.21478" lon="0.7307">
        <ele>192</ele>
        <time>2007-04-22T21:46:55Z</time>
      </trkpt>
      <trkpt lat="46.21459" lon="0.73297">
        <ele>193</ele>
        <time>2007-04-22T21:46:55Z</time>
      </trkpt>
      <trkpt lat="46.21691" lon="0.74127">
        <ele>173</ele>
        <time>2007-04-22T21:46:55Z</time>
      </trkpt>
      <trkpt lat="46.21711" lon="0.74288">
        <ele>167</ele>
        <time>2007-04-22T21:46:55Z</time>
      </trkpt>
      <trkpt lat="46.2165" lon="0.74452">
        <ele>161</ele>
        <time>2007-04-22T21:46:55Z</time>
      </trkpt>
      <trkpt lat="46.21571" lon="0.74539">
        <ele>151</ele>
        <time>2007-04-22T21:46:55Z</time>
      </trkpt>
      <trkpt lat="46.21449" lon="0.74555">
        <ele>152</ele>
        <time>2007-04-22T21:46:55Z</time>
      </trkpt>
      <trkpt lat="46.2126" lon="0.74846">
        <ele>174</ele>
        <time>2007-04-22T21:46:55Z</time>
      </trkpt>
    </trkseg>
  </trk>
  <trk>
    <name><![CDATA[Trk015]]></name>
    <trkseg>
      <trkpt lat="46.0682" lon="0.68452">
        <ele>134</ele>
        <time>2007-04-22T21:48:37Z</time>
      </trkpt>
      <trkpt lat="46.07063" lon="0.68451">
        <ele>136</ele>
        <time>2007-04-22T21:48:37Z</time>
      </trkpt>
      <trkpt lat="46.0724" lon="0.68556">
        <ele>143</ele>
        <time>2007-04-22T21:48:37Z</time>
      </trkpt>
      <trkpt lat="46.07343" lon="0.68559">
        <ele>137</ele>
        <time>2007-04-22T21:48:37Z</time>
      </trkpt>
      <trkpt lat="46.07452" lon="0.68607">
        <ele>137</ele>
        <time>2007-04-22T21:48:37Z</time>
      </trkpt>
      <trkpt lat="46.07621" lon="0.68757">
        <ele>142</ele>
        <time>2007-04-22T21:48:37Z</time>
      </trkpt>
      <trkpt lat="46.07852" lon="0.68886">
        <ele>138</ele>
        <time>2007-04-22T21:48:37Z</time>
      </trkpt>
      <trkpt lat="46.08055" lon="0.68932">
        <ele>128</ele>
        <time>2007-04-22T21:48:37Z</time>
      </trkpt>
      <trkpt lat="46.08225" lon="0.68849">
        <ele>132</ele>
        <time>2007-04-22T21:48:37Z</time>
      </trkpt>
      <trkpt lat="46.08351" lon="0.68871">
        <ele>132</ele>
        <time>2007-04-22T21:48:37Z</time>
      </trkpt>
      <trkpt lat="46.08481" lon="0.68861">
        <ele>128</ele>
        <time>2007-04-22T21:48:37Z</time>
      </trkpt>
      <trkpt lat="46.08568" lon="0.68968">
        <ele>138</ele>
        <time>2007-04-22T21:48:37Z</time>
      </trkpt>
      <trkpt lat="46.08883" lon="0.68952">
        <ele>138</ele>
        <time>2007-04-22T21:48:37Z</time>
      </trkpt>
      <trkpt lat="46.09044" lon="0.68902">
        <ele>134</ele>
        <time>2007-04-22T21:48:37Z</time>
      </trkpt>
      <trkpt lat="46.09202" lon="0.6891">
        <ele>130</ele>
        <time>2007-04-22T21:48:37Z</time>
      </trkpt>
      <trkpt lat="46.09317" lon="0.69101">
        <ele>155</ele>
        <time>2007-04-22T21:48:37Z</time>
      </trkpt>
      <trkpt lat="46.09368" lon="0.6952">
        <ele>177</ele>
        <time>2007-04-22T21:48:37Z</time>
      </trkpt>
      <trkpt lat="46.09548" lon="0.69469">
        <ele>170</ele>
        <time>2007-04-22T21:48:37Z</time>
      </trkpt>
      <trkpt lat="46.0958" lon="0.695">
        <ele>170</ele>
        <time>2007-04-22T21:48:37Z</time>
      </trkpt>
      <trkpt lat="46.09655" lon="0.6944">
        <ele>172</ele>
        <time>2007-04-22T21:48:37Z</time>
      </trkpt>
      <trkpt lat="46.09845" lon="0.69208">
        <ele>166</ele>
        <time>2007-04-22T21:48:37Z</time>
      </trkpt>
      <trkpt lat="46.09947" lon="0.69101">
        <ele>160</ele>
        <time>2007-04-22T21:48:37Z</time>
      </trkpt>
      <trkpt lat="46.10199" lon="0.68809">
        <ele>131</ele>
        <time>2007-04-22T21:48:37Z</time>
      </trkpt>
      <trkpt lat="46.10464" lon="0.68775">
        <ele>139</ele>
        <time>2007-04-22T21:48:37Z</time>
      </trkpt>
      <trkpt lat="46.10754" lon="0.68566">
        <ele>128</ele>
        <time>2007-04-22T21:48:37Z</time>
      </trkpt>
      <trkpt lat="46.1082" lon="0.68447">
        <ele>132</ele>
        <time>2007-04-22T21:48:37Z</time>
      </trkpt>
      <trkpt lat="46.11016" lon="0.68642">
        <ele>162</ele>
        <time>2007-04-22T21:48:37Z</time>
      </trkpt>
      <trkpt lat="46.11144" lon="0.68787">
        <ele>172</ele>
        <time>2007-04-22T21:48:37Z</time>
      </trkpt>
      <trkpt lat="46.11544" lon="0.69079">
        <ele>196</ele>
        <time>2007-04-22T21:48:37Z</time>
      </trkpt>
      <trkpt lat="46.11654" lon="0.68901">
        <ele>193</ele>
        <time>2007-04-22T21:48:37Z</time>
      </trkpt>
      <trkpt lat="46.11764" lon="0.68697">
        <ele>203</ele>
        <time>2007-04-22T21:48:37Z</time>
      </trkpt>
      <trkpt lat="46.11878" lon="0.68487">
        <ele>206</ele>
        <time>2007-04-22T21:48:37Z</time>
      </trkpt>
      <trkpt lat="46.11988" lon="0.6836">
        <ele>207</ele>
        <time>2007-04-22T21:48:37Z</time>
      </trkpt>
      <trkpt lat="46.12014" lon="0.68263">
        <ele>214</ele>
        <time>2007-04-22T21:48:37Z</time>
      </trkpt>
      <trkpt lat="46.11993" lon="0.68076">
        <ele>215</ele>
        <time>2007-04-22T21:48:37Z</time>
      </trkpt>
      <trkpt lat="46.12138" lon="0.67812">
        <ele>190</ele>
        <time>2007-04-22T21:48:37Z</time>
      </trkpt>
      <trkpt lat="46.12235" lon="0.67369">
        <ele>167</ele>
        <time>2007-04-22T21:48:37Z</time>
      </trkpt>
      <trkpt lat="46.12308" lon="0.67147">
        <ele>155</ele>
        <time>2007-04-22T21:48:37Z</time>
      </trkpt>
      <trkpt lat="46.12351" lon="0.67016">
        <ele>161</ele>
        <time>2007-04-22T21:48:37Z</time>
      </trkpt>
      <trkpt lat="46.12434" lon="0.66871">
        <ele>165</ele>
        <time>2007-04-22T21:48:37Z</time>
      </trkpt>
      <trkpt lat="46.12517" lon="0.66714">
        <ele>169</ele>
        <time>2007-04-22T21:48:37Z</time>
      </trkpt>
      <trkpt lat="46.12576" lon="0.66705">
        <ele>168</ele>
        <time>2007-04-22T21:48:37Z</time>
      </trkpt>
      <trkpt lat="46.12591" lon="0.66841">
        <ele>184</ele>
        <time>2007-04-22T21:48:37Z</time>
      </trkpt>
      <trkpt lat="46.12673" lon="0.6689">
        <ele>195</ele>
        <time>2007-04-22T21:48:37Z</time>
      </trkpt>
      <trkpt lat="46.12728" lon="0.66979">
        <ele>203</ele>
        <time>2007-04-22T21:48:37Z</time>
      </trkpt>
      <trkpt lat="46.12839" lon="0.66866">
        <ele>203</ele>
        <time>2007-04-22T21:48:37Z</time>
      </trkpt>
    </trkseg>
  </trk>
</gpx>